N8MS Weather Reports


Display with metric or nautical units.
time (UTC)temp
F
wind
direction
speed
MPH
gust
MPH
rain 1hr
in
rain 24hr
in
rain mn
in
humidity
%
barometer
mb
20260903042954 80 217 2.0 3.0 0.00 0.00 0.00 89 1014.0
20260903042824 80 217 2.0 3.0 0.00 0.00 0.00 89 1014.0
20260903042737 80 217 2.0 3.0 0.00 0.00 0.00 89 1014.1
20260903042630 80 217 1.0 3.0 0.00 0.00 0.00 89 1013.9
20260903042521 80 217 1.0 3.0 0.00 0.00 0.00 89 1014.0
20260903042433 80 217 1.0 3.0 0.00 0.00 0.00 89 1014.0
20260903042331 80 217 2.0 3.0 0.00 0.00 0.00 89 1014.0
20260903042243 80 217 1.0 3.0 0.00 0.00 0.00 89 1014.0
20260903042134 80 217 1.0 3.0 0.00 0.00 0.00 89 1013.9
20260903042025 80 217 1.0 3.0 0.00 0.00 0.00 89 1014.0
20260903041938 80 217 2.0 3.0 0.00 0.00 0.00 89 1014.0
20260903041830 80 217 2.0 3.0 0.00 0.00 0.00 89 1013.9
20260903041743 80 217 2.0 3.0 0.00 0.00 0.00 89 1014.0
20260903041705 80 217 2.0 3.0 0.00 0.00 0.00 89 1014.0
20260903041556 80 217 1.0 3.0 0.00 0.00 0.00 89 1013.9
20260903041431 80 217 0.0 3.0 0.00 0.00 0.00 89 1014.0
20260903041322 80 217 0.0 4.0 0.00 0.00 0.00 90 1013.9
20260903041234 80 217 0.0 4.0 0.00 0.00 0.00 90 1013.9
20260903041126 80 217 1.0 4.0 0.00 0.00 0.00 90 1013.9
20260903041038 80 217 1.0 4.0 0.00 0.00 0.00 90 1013.9
20260903040930 80 217 1.0 4.0 0.00 0.00 0.00 90 1013.9
20260903040822 80 217 2.0 4.0 0.00 0.00 0.00 90 1014.0
20260903040735 80 217 2.0 4.0 0.00 0.00 0.00 90 1013.9
20260903040646 80 237 1.0 4.0 0.00 0.00 0.00 90 1014.0
20260903040521 80 206 1.0 3.0 0.00 0.00 0.00 90 1014.0
20260903040433 80 206 0.0 3.0 0.00 0.00 0.00 90 1014.0
20260903040345 80 206 0.0 3.0 0.00 0.00 0.00 90 1013.9
20260903040257 80 206 0.0 3.0 0.00 0.00 0.00 90 1013.9
20260903040216 80 206 1.0 3.0 0.00 0.00 0.00 90 1013.9
20260903040107 80 206 2.0 3.0 0.00 0.00 0.00 90 1014.0
20260903035929 80 206 1.0 3.0 0.00 0.00 0.00 90 1013.9
20260903035821 80 206 1.0 5.0 0.00 0.00 0.00 91 1014.0
20260903035733 80 206 2.0 5.0 0.00 0.00 0.00 91 1013.9
20260903035629 80 206 1.0 5.0 0.00 0.00 0.00 91 1013.9
20260903035540 80 206 1.0 5.0 0.00 0.00 0.00 91 1013.9
20260903035433 80 206 2.0 5.0 0.00 0.00 0.00 91 1014.0
20260903035326 80 258 1.0 5.0 0.00 0.00 0.00 91 1013.9
20260903035239 80 236 1.0 5.0 0.00 0.00 0.00 91 1013.9
20260903035130 80 236 2.0 5.0 0.00 0.00 0.00 91 1013.8
20260903035021 80 236 1.0 5.0 0.00 0.00 0.00 91 1013.9
20260903034933 80 250 0.0 3.0 0.00 0.00 0.00 91 1013.9
20260903034830 80 249 0.0 0.0 0.00 0.00 0.00 91 1013.9
20260903034721 80 250 0.0 0.0 0.00 0.00 0.00 91 1013.9
20260903034644 80 250 0.0 0.0 0.00 0.00 0.00 91 1013.9
20260903034536 80 250 0.0 0.0 0.00 0.00 0.00 91 1013.9
20260903034449 80 250 0.0 0.0 0.00 0.00 0.00 91 1013.9
20260903034340 80 250 0.0 0.0 0.00 0.00 0.00 91 1013.9
20260903034231 80 250 0.0 0.0 0.00 0.00 0.00 91 1013.9
20260903034143 80 250 0.0 0.0 0.00 0.00 0.00 91 1013.9
20260903034034 80 250 0.0 0.0 0.00 0.00 0.00 91 1013.9
20260903033925 80 250 0.0 0.0 0.00 0.00 0.00 91 1014.0
20260903033821 80 250 0.0 0.0 0.00 0.00 0.00 91 1013.9
20260903033732 80 250 0.0 0.0 0.00 0.00 0.00 91 1014.0
20260903033624 80 250 0.0 0.0 0.00 0.00 0.00 90 1014.0
20260903033537 80 250 0.0 0.0 0.00 0.00 0.00 90 1014.0
20260903033428 80 250 0.0 0.0 0.00 0.00 0.00 90 1013.9
20260903033341 80 250 0.0 0.0 0.00 0.00 0.00 90 1014.0
20260903033232 80 250 0.0 0.0 0.00 0.00 0.00 90 1014.0
20260903033153 80 250 0.0 0.0 0.00 0.00 0.00 90 1014.0
20260903033044 80 250 0.0 0.0 0.00 0.00 0.00 90 1013.9
20260903032959 80 250 0.0 0.0 0.00 0.00 0.00 90 1014.0
20260903032831 80 250 0.0 0.0 0.00 0.00 0.00 90 1014.0
20260903032724 80 249 0.0 0.0 0.00 0.00 0.00 90 1014.0
20260903032636 80 250 0.0 0.0 0.00 0.00 0.00 90 1014.0
20260903032529 80 250 0.0 0.0 0.00 0.00 0.00 90 1014.0
20260903032441 80 250 0.0 0.0 0.00 0.00 0.00 90 1014.0
20260903032354 80 250 0.0 0.0 0.00 0.00 0.00 90 1014.0
20260903032224 80 250 0.0 0.0 0.00 0.00 0.00 90 1014.0
20260903032136 80 250 0.0 0.0 0.00 0.00 0.00 90 1014.0
20260903032033 80 250 0.0 0.0 0.00 0.00 0.00 90 1013.9
20260903031925 80 250 0.0 0.0 0.00 0.00 0.00 90 1014.1
20260903031838 80 250 0.0 0.0 0.00 0.00 0.00 90 1014.0
20260903031740 80 250 0.0 0.0 0.00 0.00 0.00 90 1013.9
20260903031641 80 250 0.0 0.0 0.00 0.00 0.00 90 1014.0
20260903031533 80 250 0.0 0.0 0.00 0.00 0.00 90 1013.9
20260903031424 80 250 0.0 0.0 0.00 0.00 0.00 90 1013.9
20260903031337 80 250 0.0 0.0 0.00 0.00 0.00 90 1013.9
20260903031233 80 250 0.0 0.0 0.00 0.00 0.00 90 1013.9
20260903031125 80 250 0.0 0.0 0.00 0.00 0.00 90 1014.0
20260903031037 80 250 0.0 0.0 0.00 0.00 0.00 90 1014.0
20260903030929 80 250 0.0 0.0 0.00 0.00 0.00 90 1014.0
20260903030821 80 250 0.0 0.0 0.00 0.00 0.00 90 1014.0
20260903030734 80 250 0.0 0.0 0.00 0.00 0.00 90 1014.0
20260903030646 80 250 0.0 0.0 0.00 0.00 0.00 90 1014.0
20260903030559 80 250 0.0 0.0 0.00 0.00 0.00 90 1014.0
20260903030510 80 249 0.0 0.0 0.00 0.00 0.00 90 1014.0
20260903030401 80 250 0.0 0.0 0.00 0.00 0.00 90 1014.0
20260903030318 80 250 0.0 0.0 0.00 0.00 0.00 90 1014.0
20260903030218 80 250 0.0 0.0 0.00 0.00 0.00 90 1014.0
20260903030027 80 250 0.0 0.0 0.00 0.00 0.00 90 1014.0
20260903025940 80 250 0.0 2.0 0.00 0.00 0.00 90 1014.0
20260903025833 80 249 0.0 2.0 0.00 0.00 0.00 90 1014.0
20260903025746 80 250 0.0 2.0 0.00 0.00 0.00 90 1014.0
20260903025657 80 250 0.0 2.0 0.00 0.00 0.00 90 1014.0
20260903025527 80 250 0.0 2.0 0.00 0.00 0.00 90 1014.1
20260903025440 80 250 0.0 2.0 0.00 0.00 0.00 90 1014.0
20260903025330 80 250 0.0 2.0 0.00 0.00 0.00 90 1014.0
20260903025225 80 249 1.0 2.0 0.00 0.00 0.00 90 1014.1
20260903025137 80 250 1.0 2.0 0.00 0.00 0.00 90 1014.1
20260903025049 80 250 1.0 2.0 0.00 0.00 0.00 90 1014.1
20260903024940 80 250 1.0 2.0 0.00 0.00 0.00 90 1014.0
20260903024833 80 250 1.0 2.0 0.00 0.00 0.00 90 1014.0
20260903024726 80 250 1.0 1.0 0.00 0.00 0.00 90 1014.1
20260903024648 80 250 1.0 1.0 0.00 0.00 0.00 90 1014.1
20260903024539 80 250 1.0 1.0 0.00 0.00 0.00 90 1014.1
20260903024430 80 250 0.0 1.0 0.00 0.00 0.00 89 1014.1
20260903024326 80 250 0.0 0.0 0.00 0.00 0.00 89 1014.1
20260903024236 80 249 0.0 0.0 0.00 0.00 0.00 89 1014.1
20260903024149 80 250 0.0 0.0 0.00 0.00 0.00 89 1014.1
20260903024021 80 250 0.0 0.0 0.00 0.00 0.00 89 1014.2
20260903023933 80 250 0.0 0.0 0.00 0.00 0.00 89 1014.1
20260903023844 80 250 0.0 0.0 0.00 0.00 0.00 89 1014.2
20260903023734 80 250 0.0 0.0 0.00 0.00 0.00 89 1014.2
20260903023627 80 250 0.0 0.0 0.00 0.00 0.00 89 1014.2
20260903023539 80 250 0.0 0.0 0.00 0.00 0.00 89 1014.0
20260903023450 80 250 0.0 0.0 0.00 0.00 0.00 89 1014.1
20260903023407 80 250 0.0 0.0 0.00 0.00 0.00 89 1014.1
20260903023320 80 249 0.0 0.0 0.00 0.00 0.00 89 1014.0
20260903023220 80 250 0.0 0.0 0.00 0.00 0.00 89 1014.0
20260903023111 80 250 0.0 0.0 0.00 0.00 0.00 89 1014.0
20260903023023 80 250 0.0 0.0 0.00 0.00 0.00 89 1014.0
20260903022913 80 250 0.0 0.0 0.00 0.00 0.00 89 1014.0
20260903022824 80 250 0.0 0.0 0.00 0.00 0.00 89 1014.0
20260903022655 80 250 0.0 0.0 0.00 0.00 0.00 89 1014.0
20260903022607 80 250 0.0 0.0 0.00 0.00 0.00 89 1014.0
20260903022459 80 249 0.0 0.0 0.00 0.00 0.00 89 1014.0
20260903022330 80 250 0.0 0.0 0.00 0.00 0.00 89 1014.0
20260903022226 80 250 0.0 0.0 0.00 0.00 0.00 89 1014.0
20260903022137 80 250 0.0 0.0 0.00 0.00 0.00 89 1014.0
20260903022029 80 250 0.0 0.0 0.00 0.00 0.00 89 1014.0
20260903021941 80 250 0.0 0.0 0.00 0.00 0.00 89 1014.1
20260903021853 80 250 0.0 0.0 0.00 0.00 0.00 88 1014.0
20260903021745 80 249 0.0 0.0 0.00 0.00 0.00 88 1014.1
20260903021707 80 250 0.0 0.0 0.00 0.00 0.00 88 1014.1
20260903021558 80 250 0.0 0.0 0.00 0.00 0.00 88 1014.1
20260903021509 80 250 0.0 0.0 0.00 0.00 0.00 88 1014.1
20260903021400 81 250 0.0 0.0 0.00 0.00 0.00 88 1014.0
20260903021230 81 250 0.0 0.0 0.00 0.00 0.00 88 1014.1
20260903021146 81 250 0.0 0.0 0.00 0.00 0.00 88 1014.1
20260903021058 81 250 0.0 0.0 0.00 0.00 0.00 88 1014.1
20260903021011 81 250 0.0 0.0 0.00 0.00 0.00 88 1014.1
20260903020901 81 250 0.0 0.0 0.00 0.00 0.00 88 1014.1
20260903020731 81 250 0.0 0.0 0.00 0.00 0.00 88 1014.1
20260903020623 81 250 0.0 0.0 0.00 0.00 0.00 88 1014.1
20260903020535 81 250 0.0 0.0 0.00 0.00 0.00 87 1014.2
20260903020427 81 249 0.0 0.0 0.00 0.00 0.00 87 1014.1
20260903020338 81 250 0.0 2.0 0.00 0.00 0.00 87 1014.2
20260903020232 81 250 0.0 2.0 0.00 0.00 0.00 87 1014.1
20260903020154 81 249 0.0 2.0 0.00 0.00 0.00 87 1014.1
20260903020025 81 250 0.0 2.0 0.00 0.00 0.00 87 1014.1
20260903015936 81 250 0.0 2.0 0.00 0.00 0.00 87 1014.1
20260903015828 81 250 0.0 2.0 0.00 0.00 0.00 87 1014.0
20260903015740 81 249 0.0 2.0 0.00 0.00 0.00 87 1014.0
20260903015652 81 249 0.0 2.0 0.00 0.00 0.00 87 1014.0
20260903015605 81 250 0.0 2.0 0.00 0.00 0.00 86 1014.0
20260903015516 81 250 0.0 1.0 0.00 0.00 0.00 86 1013.9
20260903015407 81 250 0.0 1.0 0.00 0.00 0.00 86 1014.0
20260903015257 81 250 0.0 1.0 0.00 0.00 0.00 86 1014.0
20260903015152 81 250 0.0 1.0 0.00 0.00 0.00 86 1014.0
20260903015043 81 250 0.0 1.0 0.00 0.00 0.00 86 1014.0
20260903014933 81 250 0.0 1.0 0.00 0.00 0.00 86 1013.9
20260903014826 81 250 0.0 1.0 0.00 0.00 0.00 86 1014.0
20260903014738 81 249 0.0 1.0 0.00 0.00 0.00 85 1014.0
20260903014700 81 250 0.0 1.0 0.00 0.00 0.00 85 1014.0
20260903014532 81 250 0.0 1.0 0.00 0.00 0.00 85 1013.9
20260903014423 82 249 0.0 1.0 0.00 0.00 0.00 85 1013.9
20260903014335 82 249 0.0 1.0 0.00 0.00 0.00 85 1013.9
20260903014231 82 250 0.0 1.0 0.00 0.00 0.00 85 1013.9
20260903014142 82 250 0.0 1.0 0.00 0.00 0.00 85 1013.9
20260903014054 82 249 0.0 0.0 0.00 0.00 0.00 85 1014.0
20260903013925 82 250 0.0 0.0 0.00 0.00 0.00 85 1014.0
20260903013837 82 249 0.0 0.0 0.00 0.00 0.00 85 1013.9
20260903013749 82 250 0.0 0.0 0.00 0.00 0.00 84 1014.0
20260903013640 82 250 0.0 1.0 0.00 0.00 0.00 84 1014.0
20260903013553 82 250 0.0 1.0 0.00 0.00 0.00 84 1013.9
20260903013443 82 250 0.0 1.0 0.00 0.00 0.00 84 1014.0
20260903013334 82 250 0.0 1.0 0.00 0.00 0.00 84 1013.9
20260903013245 82 250 0.0 1.0 0.00 0.00 0.00 84 1013.9
20260903013207 82 250 0.0 1.0 0.00 0.00 0.00 84 1013.9
20260903013102 82 250 0.0 1.0 0.00 0.00 0.00 84 1013.9
20260903012953 82 250 0.0 1.0 0.00 0.00 0.00 84 1013.9
20260903012844 82 250 0.0 1.0 0.00 0.00 0.00 84 1013.9
20260903012757 82 250 0.0 1.0 0.00 0.00 0.00 84 1013.9
20260903012648 82 249 0.0 1.0 0.00 0.00 0.00 84 1013.9
20260903012538 82 250 0.0 1.0 0.00 0.00 0.00 83 1013.9
20260903012449 82 250 0.0 0.0 0.00 0.00 0.00 83 1013.9
20260903012401 83 250 0.0 0.0 0.00 0.00 0.00 83 1013.8
20260903012232 83 250 0.0 0.0 0.00 0.00 0.00 83 1013.8
20260903012124 83 250 0.0 0.0 0.00 0.00 0.00 83 1013.8
20260903012037 83 250 0.0 0.0 0.00 0.00 0.00 83 1013.8
20260903011954 83 250 0.0 0.0 0.00 0.00 0.00 83 1013.8
20260903011904 83 250 0.0 0.0 0.00 0.00 0.00 83 1013.8
20260903011756 83 250 0.0 0.0 0.00 0.00 0.00 82 1013.7
20260903011659 83 250 0.0 0.0 0.00 0.00 0.00 82 1013.7
20260903011530 83 249 0.0 0.0 0.00 0.00 0.00 82 1013.8
20260903011422 83 250 0.0 0.0 0.00 0.00 0.00 82 1013.7
20260903011334 83 250 0.0 0.0 0.00 0.00 0.00 82 1013.6
20260903011246 83 250 0.0 0.0 0.00 0.00 0.00 82 1013.6
20260903011138 83 249 0.0 0.0 0.00 0.00 0.00 82 1013.5
20260903011029 83 250 0.0 0.0 0.00 0.00 0.00 82 1013.6
20260903010945 83 249 0.0 0.0 0.00 0.00 0.00 82 1013.7
20260903010857 83 250 0.0 0.0 0.00 0.00 0.00 82 1013.6
20260903010729 83 250 0.0 0.0 0.00 0.00 0.00 82 1013.5
20260903010641 83 250 0.0 0.0 0.00 0.00 0.00 82 1013.5
20260903010533 83 250 0.0 0.0 0.00 0.00 0.00 82 1013.5
20260903010425 83 250 0.0 0.0 0.00 0.00 0.00 82 1013.5
20260903010336 83 250 0.0 0.0 0.00 0.00 0.00 82 1013.5
20260903010246 83 249 0.0 0.0 0.00 0.00 0.00 82 1013.5
20260903010208 83 250 0.0 0.0 0.00 0.00 0.00 82 1013.5
20260903010024 83 250 0.0 1.0 0.00 0.00 0.00 82 1013.5
20260903005937 83 250 0.0 1.0 0.00 0.00 0.00 82 1013.5
20260903005828 83 250 0.0 1.0 0.00 0.00 0.00 82 1013.4
20260903005740 83 250 0.0 1.0 0.00 0.00 0.00 82 1013.3
20260903005632 83 250 0.0 1.0 0.00 0.00 0.00 82 1013.4
20260903005523 83 250 0.0 1.0 0.00 0.00 0.00 82 1013.4
20260903005435 83 250 0.0 1.0 0.00 0.00 0.00 82 1013.4
20260903005328 83 250 0.0 1.0 0.00 0.00 0.00 82 1013.3
20260903005241 84 250 0.0 1.0 0.00 0.00 0.00 82 1013.3
20260903005156 84 250 0.0 1.0 0.00 0.00 0.00 81 1013.3
20260903005108 84 250 0.0 1.0 0.00 0.00 0.00 81 1013.3
20260903004958 84 250 0.0 1.0 0.00 0.00 0.00 81 1013.4
20260903004828 84 250 0.0 1.0 0.00 0.00 0.00 81 1013.3
20260903004739 84 250 0.0 1.0 0.00 0.00 0.00 81 1013.4
20260903004700 84 250 0.0 1.0 0.00 0.00 0.00 81 1013.4
20260903004532 84 249 0.0 1.0 0.00 0.00 0.00 81 1013.2
20260903004425 84 249 0.0 2.0 0.00 0.00 0.00 81 1013.3
20260903004337 84 250 0.0 2.0 0.00 0.00 0.00 81 1013.2
20260903004234 84 250 0.0 2.0 0.00 0.00 0.00 81 1013.2
20260903004126 84 250 0.0 2.0 0.00 0.00 0.00 80 1013.1
20260903004038 84 250 0.0 2.0 0.00 0.00 0.00 80 1013.1
20260903003950 84 249 0.0 2.0 0.00 0.00 0.00 80 1013.1
20260903003840 84 250 0.0 2.0 0.00 0.00 0.00 80 1013.1
20260903003731 84 250 0.0 2.0 0.00 0.00 0.00 80 1013.2
20260903003623 84 250 0.0 2.0 0.00 0.00 0.00 80 1013.2
20260903003535 84 250 0.0 2.0 0.00 0.00 0.00 80 1013.2
20260903003428 84 250 0.0 1.0 0.00 0.00 0.00 80 1013.1
20260903003344 84 250 0.0 1.0 0.00 0.00 0.00 80 1013.2
20260903003256 84 250 0.0 1.0 0.00 0.00 0.00 80 1013.1
20260903003156 85 250 0.0 1.0 0.00 0.00 0.00 80 1013.1
20260903003048 85 250 0.0 1.0 0.00 0.00 0.00 80 1013.2
20260903002958 85 250 0.0 2.0 0.00 0.00 0.00 79 1013.2
20260903002830 85 250 0.0 2.0 0.00 0.00 0.00 79 1013.2
20260903002723 85 230 0.0 2.0 0.00 0.00 0.00 79 1013.1
20260903002634 85 230 0.0 2.0 0.00 0.00 0.00 79 1013.1
20260903002548 85 230 0.0 3.0 0.00 0.00 0.00 79 1013.2
20260903002439 85 230 0.0 3.0 0.00 0.00 0.00 79 1013.1
20260903002333 85 230 0.0 3.0 0.00 0.00 0.00 79 1013.1
20260903002245 85 230 1.0 3.0 0.00 0.00 0.00 79 1013.1
20260903002157 85 230 0.0 4.0 0.00 0.00 0.00 78 1013.1
20260903002049 85 230 0.0 4.0 0.00 0.00 0.00 78 1013.1
20260903002000 86 230 1.0 4.0 0.00 0.00 0.00 78 1013.1
20260903001851 86 230 2.0 4.0 0.00 0.00 0.00 78 1013.1
20260903001803 86 230 2.0 4.0 0.00 0.00 0.00 78 1013.1
20260903001704 86 230 2.0 4.0 0.00 0.00 0.00 78 1013.1
20260903001555 86 230 1.0 4.0 0.00 0.00 0.00 78 1013.1
20260903001427 86 230 1.0 4.0 0.00 0.00 0.00 78 1013.1
20260903001338 86 230 2.0 4.0 0.00 0.00 0.00 77 1013.1
20260903001250 86 248 2.0 4.0 0.00 0.00 0.00 77 1013.1
20260903001125 86 207 1.0 4.0 0.00 0.00 0.00 77 1013.2
20260903001036 86 219 1.0 4.0 0.00 0.00 0.00 77 1013.1
20260903000928 86 219 2.0 4.0 0.00 0.00 0.00 77 1013.2
20260903000839 86 219 2.0 4.0 0.00 0.00 0.00 77 1013.2
20260903000731 86 219 2.0 4.0 0.00 0.00 0.00 77 1013.3
20260903000623 86 219 2.0 4.0 0.00 0.00 0.00 77 1013.2
20260903000535 86 255 2.0 4.0 0.00 0.00 0.00 77 1013.2
20260903000427 86 214 1.0 3.0 0.00 0.00 0.00 77 1013.3
20260903000344 86 214 1.0 3.0 0.00 0.00 0.00 77 1013.3
20260903000234 87 214 2.0 3.0 0.00 0.00 0.00 77 1013.3
20260903000156 87 214 1.0 3.0 0.00 0.00 0.00 77 1013.3
20260903000047 87 214 1.0 4.0 0.00 0.00 0.00 77 1013.2
20260902235938 87 214 1.0 4.0 0.00 0.00 0.00 77 1013.3
20260902235831 87 214 1.0 4.0 0.00 0.00 0.00 77 1013.3
20260902235723 87 214 1.0 4.0 0.00 0.00 0.00 77 1013.2
20260902235634 87 214 1.0 4.0 0.00 0.00 0.00 76 1013.2
20260902235527 87 214 2.0 4.0 0.00 0.00 0.00 76 1013.3
20260902235423 87 214 2.0 4.0 0.00 0.00 0.00 76 1013.3
20260902235335 87 214 2.0 4.0 0.00 0.00 0.00 76 1013.3
20260902235228 87 214 2.0 4.0 0.00 0.00 0.00 76 1013.3
20260902235121 87 214 2.0 3.0 0.00 0.00 0.00 76 1013.4
20260902235033 87 214 2.0 3.0 0.00 0.00 0.00 76 1013.3
20260902234924 87 214 2.0 3.0 0.00 0.00 0.00 76 1013.3
20260902234836 87 214 2.0 3.0 0.00 0.00 0.00 76 1013.3
20260902234749 87 259 2.0 3.0 0.00 0.00 0.00 75 1013.2
20260902234712 87 220 2.0 3.0 0.00 0.00 0.00 75 1013.2
20260902234521 88 251 2.0 4.0 0.00 0.00 0.00 75 1013.3
20260902234438 88 251 2.0 4.0 0.00 0.00 0.00 75 1013.3
20260902234330 88 254 2.0 4.0 0.00 0.00 0.00 75 1013.3
20260902234221 88 274 1.0 4.0 0.00 0.00 0.00 75 1013.3
20260902234134 88 261 1.0 4.0 0.00 0.00 0.00 75 1013.4
20260902234027 88 157 2.0 4.0 0.00 0.00 0.00 75 1013.2
20260902233939 88 228 2.0 4.0 0.00 0.00 0.00 75 1013.3
20260902233831 88 235 1.0 4.0 0.00 0.00 0.00 75 1013.3
20260902233743 88 235 2.0 4.0 0.00 0.00 0.00 75 1013.3
20260902233655 88 235 2.0 3.0 0.00 0.00 0.00 74 1013.3
20260902233550 88 235 1.0 3.0 0.00 0.00 0.00 74 1013.3
20260902233422 89 239 1.0 3.0 0.00 0.00 0.00 74 1013.2
20260902233334 89 223 1.0 7.0 0.00 0.00 0.00 74 1013.3
20260902233224 89 224 2.0 7.0 0.00 0.00 0.00 74 1013.4
20260902233146 89 224 2.0 7.0 0.00 0.00 0.00 74 1013.3
20260902233036 89 224 2.0 7.0 0.00 0.00 0.00 74 1013.3
20260902232947 89 257 2.0 7.0 0.00 0.00 0.00 73 1013.3
20260902232900 89 223 2.0 7.0 0.00 0.00 0.00 74 1013.3
20260902232731 89 294 1.0 7.0 0.00 0.00 0.00 73 1013.3
20260902232626 89 268 2.0 7.0 0.00 0.00 0.00 73 1013.3
20260902232538 89 214 2.0 7.0 0.00 0.00 0.00 73 1013.4
20260902232450 89 221 2.0 5.0 0.00 0.00 0.00 73 1013.4
20260902232321 90 226 2.0 5.0 0.00 0.00 0.00 73 1013.3
20260902232233 90 226 2.0 5.0 0.00 0.00 0.00 73 1013.4
20260902232124 90 226 2.0 5.0 0.00 0.00 0.00 72 1013.3
20260902232035 90 226 2.0 5.0 0.00 0.00 0.00 73 1013.3
20260902231925 90 201 2.0 4.0 0.00 0.00 0.00 72 1013.3
20260902231837 90 201 1.0 4.0 0.00 0.00 0.00 72 1013.4
20260902231727 90 201 0.0 4.0 0.00 0.00 0.00 72 1013.3
20260902231654 90 201 1.0 4.0 0.00 0.00 0.00 72 1013.3
20260902231544 90 201 1.0 4.0 0.00 0.00 0.00 72 1013.3
20260902231457 90 201 2.0 4.0 0.00 0.00 0.00 72 1013.4
20260902231348 90 201 2.0 4.0 0.00 0.00 0.00 71 1013.4
20260902231300 90 250 2.0 4.0 0.00 0.00 0.00 71 1013.4
20260902231131 91 232 3.0 5.0 0.00 0.00 0.00 71 1013.4
20260902231024 91 223 1.0 5.0 0.00 0.00 0.00 71 1013.4
20260902230937 91 263 1.0 5.0 0.00 0.00 0.00 71 1013.5
20260902230828 91 217 0.0 5.0 0.00 0.00 0.00 71 1013.4
20260902230740 91 219 0.0 7.0 0.00 0.00 0.00 71 1013.4
20260902230656 91 192 1.0 7.0 0.00 0.00 0.00 71 1013.4
20260902230548 91 192 2.0 7.0 0.00 0.00 0.00 71 1013.4
20260902230438 91 257 2.0 7.0 0.00 0.00 0.00 71 1013.4
20260902230331 91 219 1.0 7.0 0.00 0.00 0.00 71 1013.4
20260902230241 91 276 1.0 7.0 0.00 0.00 0.00 71 1013.4
20260902230203 91 155 2.0 7.0 0.00 0.00 0.00 71 1013.4
20260902230034 91 221 2.0 7.0 0.00 0.00 0.00 71 1013.4
20260902225927 91 131 3.0 8.0 0.00 0.00 0.00 71 1013.4
20260902225838 91 196 3.0 8.0 0.00 0.00 0.00 71 1013.4
20260902225730 91 259 2.0 8.0 0.00 0.00 0.00 70 1013.4
20260902225646 91 250 2.0 8.0 0.00 0.00 0.00 71 1013.4
20260902225537 91 219 2.0 8.0 0.00 0.00 0.00 70 1013.4
20260902225430 91 225 2.0 8.0 0.00 0.00 0.00 70 1013.4
20260902225342 91 244 3.0 8.0 0.00 0.00 0.00 70 1013.4
20260902225234 91 296 4.0 8.0 0.00 0.00 0.00 70 1013.4
20260902225126 91 220 3.0 8.0 0.00 0.00 0.00 70 1013.4
20260902225038 91 202 2.0 7.0 0.00 0.00 0.00 70 1013.4
20260902224949 91 185 2.0 5.0 0.00 0.00 0.00 70 1013.4
20260902224901 91 229 2.0 5.0 0.00 0.00 0.00 70 1013.4
20260902224813 91 263 2.0 5.0 0.00 0.00 0.00 70 1013.4
20260902224653 91 219 3.0 9.0 0.00 0.00 0.00 70 1013.4
20260902224548 91 216 3.0 9.0 0.00 0.00 0.00 70 1013.4
20260902224439 91 207 2.0 9.0 0.00 0.00 0.00 70 1013.4
20260902224331 91 240 2.0 9.0 0.00 0.00 0.00 70 1013.4
20260902224224 91 219 2.0 9.0 0.00 0.00 0.00 70 1013.4
20260902224136 91 257 3.0 9.0 0.00 0.00 0.00 69 1013.4
20260902224027 91 229 3.0 9.0 0.00 0.00 0.00 70 1013.5
20260902223939 91 238 3.0 9.0 0.00 0.00 0.00 69 1013.3
20260902223832 91 254 4.0 9.0 0.00 0.00 0.00 69 1013.4
20260902223743 91 236 4.0 9.0 0.00 0.00 0.00 69 1013.5
20260902223658 92 222 3.0 8.0 0.00 0.00 0.00 69 1013.4
20260902223528 92 246 3.0 8.0 0.00 0.00 0.00 69 1013.4
20260902223440 92 201 3.0 8.0 0.00 0.00 0.00 69 1013.4
20260902223332 92 242 3.0 8.0 0.00 0.00 0.00 69 1013.5
20260902223243 92 243 3.0 8.0 0.00 0.00 0.00 68 1013.5
20260902223206 92 157 3.0 11.0 0.00 0.00 0.00 68 1013.5
20260902223035 92 241 3.0 11.0 0.00 0.00 0.00 69 1013.5
20260902222947 92 258 3.0 11.0 0.00 0.00 0.00 69 1013.5
20260902222858 92 221 4.0 11.0 0.00 0.00 0.00 69 1013.5
20260902222747 92 245 4.0 11.0 0.00 0.00 0.00 69 1013.5
20260902222659 92 237 3.0 11.0 0.00 0.00 0.00 68 1013.5
20260902222535 92 228 5.0 11.0 0.00 0.00 0.00 68 1013.5
20260902222447 92 233 5.0 11.0 0.00 0.00 0.00 68 1013.5
20260902222400 92 219 3.0 11.0 0.00 0.00 0.00 68 1013.5
20260902222230 92 317 3.0 7.0 0.00 0.00 0.00 69 1013.5
20260902222122 92 200 4.0 7.0 0.00 0.00 0.00 68 1013.5
20260902222034 92 246 3.0 7.0 0.00 0.00 0.00 69 1013.6
20260902221925 92 244 3.0 8.0 0.00 0.00 0.00 69 1013.5
20260902221836 92 250 3.0 8.0 0.00 0.00 0.00 68 1013.6
20260902221728 92 236 4.0 8.0 0.00 0.00 0.00 68 1013.5
20260902221653 92 223 3.0 8.0 0.00 0.00 0.00 68 1013.5
20260902221524 92 275 2.0 8.0 0.00 0.00 0.00 69 1013.5
20260902221436 92 251 3.0 8.0 0.00 0.00 0.00 69 1013.5
20260902221328 92 217 3.0 8.0 0.00 0.00 0.00 69 1013.5
20260902221241 92 252 3.0 8.0 0.00 0.00 0.00 69 1013.5
20260902221133 92 246 3.0 8.0 0.00 0.00 0.00 69 1013.5
20260902221046 93 230 3.0 5.0 0.00 0.00 0.00 69 1013.5
20260902220935 93 239 3.0 9.0 0.00 0.00 0.00 69 1013.6
20260902220826 93 263 2.0 9.0 0.00 0.00 0.00 68 1013.6
20260902220723 92 242 2.0 9.0 0.00 0.00 0.00 68 1013.5
20260902220633 92 221 3.0 9.0 0.00 0.00 0.00 68 1013.5
20260902220524 92 171 3.0 9.0 0.00 0.00 0.00 68 1013.4
20260902220436 92 234 3.0 9.0 0.00 0.00 0.00 68 1013.5
20260902220351 92 135 2.0 9.0 0.00 0.00 0.00 68 1013.5
20260902220239 92 269 3.0 9.0 0.00 0.00 0.00 68 1013.5
20260902220200 92 64 3.0 9.0 0.00 0.00 0.00 68 1013.5
20260902220051 92 259 2.0 7.0 0.00 0.00 0.00 68 1013.6
20260902220003 93 266 2.0 7.0 0.00 0.00 0.00 69 1013.6
20260902215854 93 259 3.0 7.0 0.00 0.00 0.00 69 1013.6
20260902215728 92 246 3.0 7.0 0.00 0.00 0.00 68 1013.5
20260902215639 93 240 3.0 7.0 0.00 0.00 0.00 68 1013.6
20260902215532 93 198 4.0 7.0 0.00 0.00 0.00 68 1013.5
20260902215444 93 222 4.0 7.0 0.00 0.00 0.00 68 1013.6
20260902215356 93 242 3.0 7.0 0.00 0.00 0.00 68 1013.6
20260902215247 93 242 3.0 7.0 0.00 0.00 0.00 68 1013.5
20260902215137 93 225 4.0 7.0 0.00 0.00 0.00 67 1013.5
20260902215030 93 240 4.0 7.0 0.00 0.00 0.00 67 1013.5
20260902214942 93 212 3.0 7.0 0.00 0.00 0.00 68 1013.5
20260902214833 93 45 3.0 7.0 0.00 0.00 0.00 67 1013.5
20260902214756 93 234 3.0 9.0 0.00 0.00 0.00 67 1013.5
20260902214650 93 210 3.0 9.0 0.00 0.00 0.00 67 1013.5
20260902214540 93 227 3.0 9.0 0.00 0.00 0.00 67 1013.5
20260902214431 93 246 3.0 9.0 0.00 0.00 0.00 67 1013.5
20260902214340 93 259 4.0 9.0 0.00 0.00 0.00 67 1013.5
20260902214232 93 185 5.0 9.0 0.00 0.00 0.00 66 1013.5
20260902214125 93 231 4.0 9.0 0.00 0.00 0.00 66 1013.5
20260902214036 93 234 4.0 9.0 0.00 0.00 0.00 67 1013.5
20260902213927 93 222 5.0 9.0 0.00 0.00 0.00 66 1013.6
20260902213839 93 218 4.0 9.0 0.00 0.00 0.00 66 1013.6
20260902213754 93 257 3.0 8.0 0.00 0.00 0.00 67 1013.5
20260902213645 93 218 3.0 8.0 0.00 0.00 0.00 67 1013.6
20260902213556 93 227 2.0 6.0 0.00 0.00 0.00 67 1013.7
20260902213426 93 225 2.0 6.0 0.00 0.00 0.00 67 1013.6
20260902213339 93 225 3.0 9.0 0.00 0.00 0.00 67 1013.7
20260902213230 93 240 3.0 9.0 0.00 0.00 0.00 66 1013.5
20260902213153 93 251 3.0 9.0 0.00 0.00 0.00 66 1013.5
20260902213043 93 235 3.0 9.0 0.00 0.00 0.00 66 1013.6
20260902212954 93 247 2.0 9.0 0.00 0.00 0.00 66 1013.6
20260902212824 93 184 3.0 9.0 0.00 0.00 0.00 65 1013.6
20260902212739 93 299 4.0 9.0 0.00 0.00 0.00 65 1013.6
20260902212652 93 207 5.0 9.0 0.00 0.00 0.00 65 1013.6
20260902212523 93 243 4.0 8.0 0.00 0.00 0.00 66 1013.5
20260902212435 93 272 4.0 8.0 0.00 0.00 0.00 66 1013.5
20260902212327 93 272 4.0 8.0 0.00 0.00 0.00 66 1013.6
20260902212238 93 255 3.0 8.0 0.00 0.00 0.00 66 1013.5
20260902212130 93 221 3.0 9.0 0.00 0.00 0.00 66 1013.5
20260902212043 93 211 2.0 9.0 0.00 0.00 0.00 66 1013.6
20260902211954 93 242 3.0 9.0 0.00 0.00 0.00 67 1013.6
20260902211906 93 259 3.0 9.0 0.00 0.00 0.00 66 1013.5
20260902211823 93 236 2.0 9.0 0.00 0.00 0.00 66 1013.5
20260902211722 93 245 3.0 9.0 0.00 0.00 0.00 66 1013.5
20260902211533 93 269 4.0 9.0 0.00 0.00 0.00 65 1013.5
20260902211425 93 242 5.0 9.0 0.00 0.00 0.00 66 1013.7
20260902211337 93 251 4.0 9.0 0.00 0.00 0.00 66 1013.5
20260902211229 93 254 3.0 9.0 0.00 0.00 0.00 69 1013.6
20260902211141 93 263 2.0 5.0 0.00 0.00 0.00 69 1013.6
20260902211032 93 284 2.0 7.0 0.00 0.00 0.00 68 1013.5
20260902210943 93 119 2.0 7.0 0.00 0.00 0.00 68 1013.5
20260902210859 93 237 2.0 8.0 0.00 0.00 0.00 68 1013.5
20260902210730 93 152 2.0 8.0 0.00 0.00 0.00 67 1013.6
20260902210642 93 255 2.0 8.0 0.00 0.00 0.00 68 1013.6
20260902210556 93 159 1.0 8.0 0.00 0.00 0.00 69 1013.7
20260902210426 93 167 2.0 9.0 0.00 0.00 0.00 68 1013.7
20260902210338 93 225 2.0 9.0 0.00 0.00 0.00 68 1013.6
20260902210227 93 175 2.0 9.0 0.00 0.00 0.00 67 1013.6
20260902210150 93 237 3.0 9.0 0.00 0.00 0.00 67 1013.6
20260902210040 93 223 4.0 9.0 0.00 0.00 0.00 66 1013.7
20260902205951 93 202 3.0 9.0 0.00 0.00 0.00 66 1013.7
20260902205846 93 249 4.0 9.0 0.00 0.00 0.00 67 1013.7
20260902205759 93 187 3.0 9.0 0.00 0.00 0.00 66 1013.8
20260902205649 93 140 3.0 9.0 0.00 0.00 0.00 66 1013.7
20260902205600 93 98 3.0 7.0 0.00 0.00 0.00 66 1013.7
20260902205511 93 258 2.0 7.0 0.00 0.00 0.00 66 1013.8
20260902205402 93 184 2.0 7.0 0.00 0.00 0.00 66 1013.8
20260902205253 93 153 3.0 7.0 0.00 0.00 0.00 66 1013.8
20260902205205 93 94 3.0 7.0 0.00 0.00 0.00 66 1013.8
20260902205035 93 275 3.0 7.0 0.00 0.00 0.00 66 1013.9
20260902204925 93 202 4.0 7.0 0.00 0.00 0.00 66 1013.8
20260902204837 93 247 3.0 8.0 0.00 0.00 0.00 66 1013.9
20260902204749 93 168 3.0 8.0 0.00 0.00 0.00 66 1013.9
20260902204715 93 300 3.0 8.0 0.00 0.00 0.00 66 1013.9
20260902204524 93 228 3.0 8.0 0.00 0.00 0.00 67 1013.9
20260902204435 93 237 4.0 8.0 0.00 0.00 0.00 67 1013.9
20260902204327 93 238 3.0 8.0 0.00 0.00 0.00 67 1013.9
20260902204239 93 215 2.0 8.0 0.00 0.00 0.00 69 1013.9
20260902204131 93 144 2.0 8.0 0.00 0.00 0.00 69 1013.9
20260902204042 93 247 2.0 8.0 0.00 0.00 0.00 69 1013.9
20260902203954 93 113 2.0 8.0 0.00 0.00 0.00 67 1013.9
20260902203846 93 276 2.0 8.0 0.00 0.00 0.00 67 1013.9
20260902203721 93 128 3.0 8.0 0.00 0.00 0.00 67 1013.9
20260902203633 93 234 4.0 8.0 0.00 0.00 0.00 66 1013.9
20260902203545 93 261 3.0 6.0 0.00 0.00 0.00 66 1014.0
20260902203457 93 237 3.0 6.0 0.00 0.00 0.00 67 1013.9
20260902203328 93 278 3.0 7.0 0.00 0.00 0.00 67 1013.9
20260902203237 93 29 2.0 7.0 0.00 0.00 0.00 67 1014.0
20260902203159 93 187 3.0 7.0 0.00 0.00 0.00 66 1014.0
20260902203031 93 215 4.0 7.0 0.00 0.00 0.00 66 1014.0
20260902202942 93 211 3.0 7.0 0.00 0.00 0.00 67 1014.0
20260902202854 93 238 2.0 7.0 0.00 0.00 0.00 66 1014.0
20260902202730 93 265 3.0 7.0 0.00 0.00 0.00 66 1014.0
20260902202641 93 248 2.0 7.0 0.00 0.00 0.00 66 1014.0
20260902202533 93 189 3.0 7.0 0.00 0.00 0.00 66 1014.1
20260902202424 93 223 3.0 7.0 0.00 0.00 0.00 66 1014.1
20260902202336 93 240 3.0 5.0 0.00 0.00 0.00 65 1014.0
20260902202227 93 153 2.0 5.0 0.00 0.00 0.00 67 1014.1
20260902202138 93 264 2.0 5.0 0.00 0.00 0.00 67 1014.2
20260902202030 93 243 2.0 5.0 0.00 0.00 0.00 67 1014.2
20260902201943 93 203 2.0 7.0 0.00 0.00 0.00 67 1014.3
20260902201858 93 246 3.0 7.0 0.00 0.00 0.00 68 1014.2
20260902201730 93 232 2.0 7.0 0.00 0.00 0.00 68 1014.2
20260902201651 93 234 2.0 7.0 0.00 0.00 0.00 68 1014.2
20260902201542 93 175 2.0 7.0 0.00 0.00 0.00 68 1014.3
20260902201454 93 90 2.0 7.0 0.00 0.00 0.00 68 1014.3
20260902201325 93 205 2.0 7.0 0.00 0.00 0.00 68 1014.3
20260902201236 93 282 2.0 7.0 0.00 0.00 0.00 68 1014.3
20260902201128 93 261 2.0 7.0 0.00 0.00 0.00 68 1014.3
20260902201040 93 170 2.0 7.0 0.00 0.00 0.00 68 1014.4
20260902200935 93 279 2.0 7.0 0.00 0.00 0.00 68 1014.4
20260902200847 93 157 2.0 7.0 0.00 0.00 0.00 67 1014.3
20260902200738 93 279 1.0 5.0 0.00 0.00 0.00 68 1014.4
20260902200631 93 150 1.0 5.0 0.00 0.00 0.00 69 1014.4
20260902200522 93 186 2.0 5.0 0.00 0.00 0.00 67 1014.5
20260902200433 93 229 3.0 5.0 0.00 0.00 0.00 68 1014.5
20260902200324 93 279 2.0 5.0 0.00 0.00 0.00 69 1014.4
20260902200234 93 224 2.0 5.0 0.00 0.00 0.00 68 1014.4
20260902200157 93 160 2.0 5.0 0.00 0.00 0.00 69 1014.4
20260902200027 93 142 2.0 5.0 0.00 0.00 0.00 68 1014.5
20260902195924 93 279 2.0 5.0 0.00 0.00 0.00 68 1014.5
20260902195836 93 265 2.0 5.0 0.00 0.00 0.00 68 1014.6
20260902195729 93 162 1.0 5.0 0.00 0.00 0.00 69 1014.5
20260902195640 93 130 2.0 5.0 0.00 0.00 0.00 69 1014.6
20260902195552 93 146 2.0 5.0 0.00 0.00 0.00 69 1014.6
20260902195444 93 169 2.0 6.0 0.00 0.00 0.00 69 1014.6
20260902195336 93 125 1.0 5.0 0.00 0.00 0.00 70 1014.6
20260902195249 92 237 2.0 5.0 0.00 0.00 0.00 69 1014.7
20260902195141 93 161 3.0 5.0 0.00 0.00 0.00 69 1014.7
20260902195032 92 149 3.0 7.0 0.00 0.00 0.00 69 1014.7
20260902194927 92 259 2.0 7.0 0.00 0.00 0.00 68 1014.7
20260902194840 92 198 2.0 7.0 0.00 0.00 0.00 69 1014.6
20260902194732 92 234 2.0 7.0 0.00 0.00 0.00 69 1014.7
20260902194653 92 234 2.0 7.0 0.00 0.00 0.00 69 1014.7
20260902194525 92 239 2.0 7.0 0.00 0.00 0.00 69 1014.8
20260902194437 92 241 2.0 7.0 0.00 0.00 0.00 68 1014.8
20260902194350 92 229 3.0 7.0 0.00 0.00 0.00 68 1014.8
20260902194221 92 228 3.0 7.0 0.00 0.00 0.00 68 1014.9
20260902194133 92 246 2.0 6.0 0.00 0.00 0.00 67 1014.8
20260902194050 92 178 2.0 6.0 0.00 0.00 0.00 67 1014.9
20260902193940 92 239 3.0 6.0 0.00 0.00 0.00 67 1015.0
20260902193832 92 194 3.0 6.0 0.00 0.00 0.00 67 1015.0
20260902193744 92 266 3.0 7.0 0.00 0.00 0.00 68 1015.0
20260902193635 92 242 3.0 4.0 0.00 0.00 0.00 68 1015.0
20260902193527 92 231 3.0 4.0 0.00 0.00 0.00 68 1015.0
20260902193439 92 225 2.0 4.0 0.00 0.00 0.00 70 1015.1
20260902193332 92 246 1.0 5.0 0.00 0.00 0.00 69 1015.0
20260902193241 92 149 1.0 5.0 0.00 0.00 0.00 70 1015.0
20260902193203 92 149 0.0 5.0 0.00 0.00 0.00 69 1015.0
20260902193058 92 174 1.0 5.0 0.00 0.00 0.00 69 1015.1
20260902192929 91 174 2.0 7.0 0.00 0.00 0.00 68 1015.0
20260902192841 91 220 2.0 7.0 0.00 0.00 0.00 68 1015.1
20260902192733 91 217 2.0 7.0 0.00 0.00 0.00 68 1015.1
20260902192645 91 202 2.0 7.0 0.00 0.00 0.00 69 1015.1
20260902192558 91 242 2.0 7.0 0.00 0.00 0.00 68 1015.1
20260902192429 91 253 2.0 7.0 0.00 0.00 0.00 68 1015.2
20260902192321 91 269 3.0 7.0 0.00 0.00 0.00 68 1015.2
20260902192233 91 259 3.0 7.0 0.00 0.00 0.00 68 1015.1
20260902192149 91 225 3.0 8.0 0.00 0.00 0.00 67 1015.2
20260902192102 91 247 2.0 8.0 0.00 0.00 0.00 68 1015.1
20260902191952 91 273 2.0 8.0 0.00 0.00 0.00 68 1015.2
20260902191843 91 241 1.0 8.0 0.00 0.00 0.00 68 1015.2
20260902191755 91 241 1.0 8.0 0.00 0.00 0.00 68 1015.2
20260902191718 91 218 2.0 8.0 0.00 0.00 0.00 67 1015.2
20260902191527 91 253 2.0 8.0 0.00 0.00 0.00 67 1015.2
20260902191439 91 232 2.0 8.0 0.00 0.00 0.00 66 1015.2
20260902191331 91 221 3.0 8.0 0.00 0.00 0.00 65 1015.2
20260902191222 91 232 4.0 8.0 0.00 0.00 0.00 65 1015.2
20260902191137 91 220 3.0 8.0 0.00 0.00 0.00 67 1015.3
20260902191029 91 252 3.0 7.0 0.00 0.00 0.00 67 1015.3
20260902190941 91 261 3.0 7.0 0.00 0.00 0.00 65 1015.4
20260902190853 91 227 3.0 5.0 0.00 0.00 0.00 66 1015.4
20260902190804 91 252 3.0 5.0 0.00 0.00 0.00 65 1015.3
20260902190656 91 164 2.0 5.0 0.00 0.00 0.00 65 1015.4
20260902190548 91 227 2.0 5.0 0.00 0.00 0.00 65 1015.4
20260902190501 91 230 3.0 5.0 0.00 0.00 0.00 66 1015.3
20260902190331 91 242 3.0 5.0 0.00 0.00 0.00 66 1015.3
20260902190222 91 237 2.0 4.0 0.00 0.00 0.00 67 1015.4
20260902190158 91 229 2.0 4.0 0.00 0.00 0.00 67 1015.4
20260902190050 91 223 1.0 4.0 0.00 0.00 0.00 68 1015.4
20260902190001 91 137 1.0 4.0 0.00 0.00 0.00 68 1015.4
20260902185913 91 273 1.0 5.0 0.00 0.00 0.00 69 1015.4
20260902185804 91 273 2.0 5.0 0.00 0.00 0.00 68 1015.4
20260902185655 90 273 2.0 5.0 0.00 0.00 0.00 67 1015.4
20260902185607 90 246 2.0 5.0 0.00 0.00 0.00 68 1015.5
20260902185457 90 249 1.0 7.0 0.00 0.00 0.00 68 1015.4
20260902185327 90 288 1.0 7.0 0.00 0.00 0.00 67 1015.4
20260902185240 90 291 2.0 7.0 0.00 0.00 0.00 67 1015.4
20260902185129 90 288 3.0 7.0 0.00 0.00 0.00 67 1015.5
20260902185042 90 273 3.0 8.0 0.00 0.00 0.00 68 1015.5
20260902184937 90 286 3.0 8.0 0.00 0.00 0.00 67 1015.5
20260902184829 90 294 3.0 8.0 0.00 0.00 0.00 67 1015.5
20260902184740 90 282 3.0 8.0 0.00 0.00 0.00 66 1015.5
20260902184701 90 282 4.0 8.0 0.00 0.00 0.00 66 1015.5
20260902184532 90 279 4.0 9.0 0.00 0.00 0.00 65 1015.5
20260902184424 90 238 3.0 9.0 0.00 0.00 0.00 67 1015.5
20260902184337 90 279 4.0 9.0 0.00 0.00 0.00 66 1015.5
20260902184249 90 259 4.0 9.0 0.00 0.00 0.00 66 1015.4
20260902184202 90 279 4.0 9.0 0.00 0.00 0.00 67 1015.5
20260902184036 90 269 3.0 9.0 0.00 0.00 0.00 68 1015.4
20260902183947 90 305 3.0 9.0 0.00 0.00 0.00 66 1015.4
20260902183839 90 295 4.0 9.0 0.00 0.00 0.00 64 1015.5
20260902183732 90 268 5.0 9.0 0.00 0.00 0.00 65 1015.5
20260902183623 90 326 5.0 9.0 0.00 0.00 0.00 66 1015.5
20260902183535 90 252 4.0 9.0 0.00 0.00 0.00 65 1015.4
20260902183426 90 250 3.0 7.0 0.00 0.00 0.00 66 1015.5
20260902183339 90 238 3.0 7.0 0.00 0.00 0.00 67 1015.5
20260902183248 90 280 2.0 7.0 0.00 0.00 0.00 67 1015.5
20260902183150 90 298 2.0 7.0 0.00 0.00 0.00 67 1015.5
20260902183045 90 239 1.0 7.0 0.00 0.00 0.00 69 1015.5
20260902182956 90 279 3.0 7.0 0.00 0.00 0.00 68 1015.6
20260902182828 90 276 3.0 7.0 0.00 0.00 0.00 67 1015.5
20260902182740 90 334 2.0 8.0 0.00 0.00 0.00 68 1015.5
20260902182652 90 254 2.0 8.0 0.00 0.00 0.00 68 1015.6
20260902182524 90 254 2.0 8.0 0.00 0.00 0.00 67 1015.5
20260902182436 90 232 2.0 8.0 0.00 0.00 0.00 67 1015.6
20260902182328 90 240 2.0 8.0 0.00 0.00 0.00 69 1015.6
20260902182239 90 239 3.0 10.0 0.00 0.00 0.00 67 1015.6
20260902182135 90 250 4.0 10.0 0.00 0.00 0.00 66 1015.6
20260902182026 90 250 4.0 10.0 0.00 0.00 0.00 65 1015.5
20260902181939 90 239 4.0 10.0 0.00 0.00 0.00 67 1015.6
20260902181850 90 267 3.0 10.0 0.00 0.00 0.00 66 1015.6
20260902181741 90 328 2.0 10.0 0.00 0.00 0.00 68 1015.5
20260902181703 90 239 3.0 10.0 0.00 0.00 0.00 67 1015.5
20260902181534 90 229 5.0 10.0 0.00 0.00 0.00 65 1015.6
20260902181426 90 234 4.0 10.0 0.00 0.00 0.00 66 1015.6
20260902181339 90 229 3.0 6.0 0.00 0.00 0.00 66 1015.6
20260902181231 90 229 3.0 6.0 0.00 0.00 0.00 66 1015.6
20260902181127 90 204 1.0 6.0 0.00 0.00 0.00 66 1015.7
20260902181039 90 265 0.0 6.0 0.00 0.00 0.00 66 1015.6
20260902180931 90 265 2.0 6.0 0.00 0.00 0.00 66 1015.6
20260902180843 90 227 3.0 6.0 0.00 0.00 0.00 66 1015.6
20260902180752 90 230 3.0 6.0 0.00 0.00 0.00 66 1015.5
20260902180623 90 240 2.0 6.0 0.00 0.00 0.00 67 1015.5
20260902180535 90 228 2.0 6.0 0.00 0.00 0.00 67 1015.6
20260902180427 90 156 3.0 6.0 0.00 0.00 0.00 66 1015.5
20260902180338 90 247 3.0 6.0 0.00 0.00 0.00 66 1015.5
20260902180252 90 236 2.0 7.0 0.00 0.01 0.00 67 1015.6
20260902180154 90 227 2.0 7.0 0.00 0.01 0.00 67 1015.6
20260902180045 90 254 3.0 9.0 0.00 0.01 0.00 67 1015.5
20260902175935 90 244 4.0 9.0 0.00 0.01 0.00 66 1015.6
20260902175826 90 273 3.0 9.0 0.00 0.01 0.00 66 1015.6
20260902175736 90 246 3.0 9.0 0.00 0.01 0.00 66 1015.6
20260902175647 90 228 2.0 9.0 0.00 0.01 0.00 66 1015.5
20260902175539 90 271 3.0 9.0 0.00 0.01 0.00 65 1015.6
20260902175449 90 217 4.0 9.0 0.00 0.01 0.00 65 1015.6
20260902175340 90 248 5.0 9.0 0.00 0.01 0.00 65 1015.6
20260902175233 90 237 4.0 9.0 0.00 0.01 0.00 67 1015.6
20260902175150 90 265 4.0 8.0 0.00 0.01 0.00 65 1015.7
20260902175021 90 223 5.0 7.0 0.00 0.01 0.00 67 1015.6
20260902174934 90 220 4.0 8.0 0.00 0.01 0.00 67 1015.6
20260902174846 90 244 4.0 8.0 0.00 0.01 0.00 67 1015.6
20260902174758 90 249 2.0 5.0 0.00 0.01 0.00 68 1015.6
20260902174700 90 273 2.0 7.0 0.00 0.01 0.00 67 1015.6
20260902174531 90 277 2.0 7.0 0.00 0.01 0.00 67 1015.5
20260902174445 90 280 2.0 8.0 0.00 0.01 0.00 67 1015.6
20260902174336 89 240 2.0 8.0 0.00 0.01 0.00 67 1015.6
20260902174227 89 304 3.0 8.0 0.00 0.01 0.00 67 1015.7
20260902174122 89 261 3.0 8.0 0.00 0.01 0.00 66 1015.6
20260902174034 89 267 4.0 8.0 0.00 0.01 0.00 66 1015.6
20260902173925 90 232 3.0 8.0 0.00 0.01 0.00 66 1015.6
20260902173836 90 249 2.0 8.0 0.00 0.01 0.00 68 1015.6
20260902173728 90 198 4.0 8.0 0.00 0.01 0.00 66 1015.7
20260902173621 90 229 3.0 8.0 0.00 0.01 0.00 66 1015.6
20260902173533 90 247 2.0 7.0 0.00 0.01 0.00 68 1015.6
20260902173424 89 298 3.0 7.0 0.00 0.01 0.00 66 1015.7
20260902173340 89 304 3.0 7.0 0.00 0.01 0.00 66 1015.6
20260902173231 89 276 2.0 7.0 0.00 0.01 0.00 68 1015.6
20260902173152 89 229 2.0 6.0 0.00 0.01 0.00 67 1015.6
20260902173024 89 249 1.0 6.0 0.00 0.01 0.00 67 1015.6
20260902172935 89 221 2.0 6.0 0.00 0.01 0.00 68 1015.7
20260902172828 89 221 2.0 6.0 0.00 0.01 0.00 68 1015.6
20260902172721 89 246 3.0 8.0 0.00 0.01 0.00 69 1015.7
20260902172633 89 228 2.0 8.0 0.00 0.01 0.00 70 1015.7
20260902172528 89 242 2.0 8.0 0.00 0.01 0.00 68 1015.6
20260902172440 89 252 2.0 8.0 0.00 0.01 0.00 68 1015.7
20260902172333 89 265 2.0 8.0 0.00 0.01 0.00 69 1015.7
20260902172245 89 254 2.0 8.0 0.00 0.01 0.00 67 1015.6
20260902172137 89 252 3.0 8.0 0.00 0.01 0.00 67 1015.7
20260902172029 89 252 4.0 8.0 0.00 0.01 0.00 67 1015.7
20260902171941 89 227 4.0 8.0 0.00 0.01 0.00 67 1015.7
20260902171833 89 240 3.0 8.0 0.00 0.01 0.00 68 1015.7
20260902171725 89 219 2.0 8.0 0.00 0.01 0.00 68 1015.7
20260902171700 89 232 2.0 8.0 0.00 0.01 0.00 68 1015.7
20260902171532 89 242 3.0 8.0 0.00 0.01 0.00 68 1015.7
20260902171425 89 223 4.0 8.0 0.00 0.01 0.00 68 1015.6
20260902171336 89 225 4.0 8.0 0.00 0.01 0.00 68 1015.6
20260902171227 89 236 3.0 8.0 0.00 0.01 0.00 68 1015.6
20260902171141 89 225 3.0 8.0 0.00 0.01 0.00 68 1015.7
20260902171052 89 243 3.0 5.0 0.00 0.01 0.00 67 1015.6
20260902170943 89 236 2.0 7.0 0.00 0.01 0.00 67 1015.6
20260902170855 89 244 2.0 7.0 0.00 0.01 0.00 68 1015.6
20260902170730 89 207 3.0 7.0 0.00 0.01 0.00 68 1015.6
20260902170622 89 232 3.0 7.0 0.00 0.01 0.00 67 1015.7
20260902170534 89 240 2.0 7.0 0.00 0.01 0.00 68 1015.6
20260902170424 89 282 1.0 7.0 0.00 0.01 0.00 68 1015.7
20260902170336 89 269 2.0 7.0 0.00 0.01 0.00 69 1015.6
20260902170226 89 227 2.0 7.0 0.00 0.01 0.00 69 1015.6
20260902170148 89 227 2.0 7.0 0.00 0.01 0.00 69 1015.7
20260902170039 88 225 2.0 7.0 0.00 0.01 0.00 69 1015.6
20260902165931 88 252 3.0 7.0 0.00 0.01 0.00 69 1015.7
20260902165826 88 246 3.0 7.0 0.00 0.01 0.00 71 1015.7
20260902165738 88 254 2.0 5.0 0.00 0.01 0.00 70 1015.7
20260902165630 88 233 2.0 6.0 0.00 0.01 0.00 71 1015.6
20260902165522 88 233 2.0 6.0 0.00 0.01 0.00 70 1015.7
20260902165434 88 242 1.0 6.0 0.00 0.01 0.00 70 1015.7
20260902165326 88 223 1.0 6.0 0.00 0.01 0.00 69 1015.7
20260902165239 88 223 1.0 6.0 0.00 0.01 0.00 69 1015.8
20260902165130 88 237 1.0 6.0 0.00 0.01 0.00 69 1015.8
20260902165027 88 228 2.0 6.0 0.00 0.01 0.00 68 1015.8
20260902164939 88 175 3.0 6.0 0.00 0.01 0.00 68 1015.9
20260902164828 88 224 3.0 6.0 0.00 0.01 0.00 69 1015.9
20260902164739 88 284 3.0 7.0 0.00 0.01 0.00 69 1015.9
20260902164701 88 236 3.0 5.0 0.00 0.01 0.00 70 1015.9
20260902164551 88 230 2.0 5.0 0.00 0.01 0.00 69 1015.9
20260902164423 88 227 2.0 5.0 0.00 0.01 0.00 69 1016.0
20260902164334 88 227 3.0 5.0 0.00 0.01 0.00 69 1015.9
20260902164225 87 243 3.0 6.0 0.00 0.01 0.00 70 1015.9
20260902164121 87 268 1.0 6.0 0.00 0.01 0.00 72 1015.9
20260902164034 87 239 0.0 6.0 0.00 0.01 0.00 71 1015.9
20260902163947 87 232 0.0 6.0 0.00 0.01 0.00 72 1016.0
20260902163900 87 242 1.0 6.0 0.00 0.01 0.00 72 1015.9
20260902163732 87 242 2.0 6.0 0.00 0.01 0.00 71 1015.9
20260902163625 87 242 3.0 6.0 0.00 0.01 0.00 70 1015.9
20260902163536 87 226 3.0 6.0 0.00 0.01 0.00 70 1015.9
20260902163427 87 236 2.0 6.0 0.00 0.01 0.00 73 1015.9
20260902163340 87 162 1.0 5.0 0.00 0.01 0.00 74 1015.9
20260902163250 87 151 2.0 5.0 0.00 0.01 0.00 74 1015.9
20260902163216 87 151 2.0 5.0 0.00 0.01 0.00 74 1015.9
20260902163107 86 175 1.0 5.0 0.00 0.01 0.00 73 1016.0
20260902162958 86 234 2.0 5.0 0.00 0.01 0.00 72 1015.9
20260902162830 86 244 1.0 5.0 0.00 0.01 0.00 73 1016.0
20260902162722 86 294 2.0 5.0 0.00 0.01 0.00 73 1016.0
20260902162636 86 294 2.0 5.0 0.00 0.01 0.00 73 1016.1
20260902162548 86 294 3.0 5.0 0.00 0.01 0.00 73 1016.2
20260902162439 86 295 3.0 5.0 0.00 0.01 0.00 72 1016.0
20260902162330 86 312 2.0 5.0 0.00 0.01 0.00 75 1016.0
20260902162226 86 257 2.0 5.0 0.00 0.01 0.00 73 1016.1
20260902162138 86 228 2.0 5.0 0.00 0.01 0.00 74 1016.1
20260902162030 86 296 2.0 6.0 0.00 0.01 0.00 75 1016.0
20260902161942 85 232 1.0 5.0 0.00 0.01 0.00 74 1016.0
20260902161853 85 255 1.0 7.0 0.00 0.01 0.00 75 1016.0
20260902161724 85 255 1.0 7.0 0.00 0.01 0.00 76 1016.0
20260902161646 85 255 1.0 7.0 0.00 0.01 0.00 76 1016.1
20260902161537 85 221 1.0 7.0 0.00 0.01 0.00 75 1016.0
20260902161429 85 221 2.0 7.0 0.00 0.01 0.00 74 1016.1
20260902161341 85 236 2.0 7.0 0.00 0.01 0.00 74 1016.0
20260902161257 85 213 3.0 7.0 0.00 0.01 0.00 74 1016.1
20260902161148 85 243 4.0 7.0 0.00 0.01 0.00 74 1016.1
20260902161038 85 229 3.0 7.0 0.00 0.01 0.00 73 1016.1
20260902160930 85 241 3.0 8.0 0.00 0.01 0.00 74 1016.1
20260902160823 85 217 3.0 8.0 0.00 0.01 0.00 74 1016.1
20260902160735 85 227 3.0 8.0 0.00 0.01 0.00 74 1016.0
20260902160628 85 223 4.0 8.0 0.00 0.01 0.00 74 1016.0
20260902160539 85 256 3.0 8.0 0.00 0.01 0.00 74 1016.1
20260902160431 85 232 2.0 8.0 0.00 0.01 0.00 75 1016.0
20260902160326 85 222 2.0 8.0 0.00 0.01 0.00 74 1016.2
20260902160237 85 222 3.0 8.0 0.00 0.01 0.00 75 1016.2
20260902160159 85 175 4.0 8.0 0.00 0.01 0.00 74 1016.2
20260902160030 85 240 4.0 7.0 0.00 0.01 0.00 76 1016.2
20260902155943 84 231 3.0 6.0 0.00 0.01 0.00 75 1016.2
20260902155856 84 238 3.0 6.0 0.00 0.01 0.00 75 1016.2
20260902155726 84 234 1.0 7.0 0.00 0.01 0.00 75 1016.2
20260902155638 84 249 0.0 7.0 0.00 0.01 0.00 75 1016.1
20260902155530 84 321 2.0 7.0 0.00 0.01 0.00 75 1016.1
20260902155426 84 258 3.0 7.0 0.00 0.01 0.00 73 1016.2
20260902155337 84 251 3.0 7.0 0.00 0.01 0.00 74 1016.1
20260902155229 84 258 2.0 7.0 0.00 0.01 0.00 74 1016.1
20260902155141 84 228 1.0 7.0 0.00 0.01 0.00 74 1016.1
20260902155052 84 240 1.0 7.0 0.00 0.01 0.00 74 1016.2
20260902154923 84 252 3.0 7.0 0.00 0.01 0.00 74 1016.2
20260902154834 84 275 4.0 7.0 0.00 0.01 0.00 74 1016.2
20260902154747 84 275 4.0 7.0 0.00 0.01 0.00 74 1016.3
20260902154708 85 289 3.0 7.0 0.00 0.01 0.00 73 1016.3
20260902154600 85 254 3.0 9.0 0.00 0.01 0.00 73 1016.1
20260902154515 85 270 3.0 9.0 0.00 0.01 0.00 73 1016.2
20260902154345 85 261 3.0 9.0 0.00 0.01 0.00 73 1016.2
20260902154257 85 234 3.0 9.0 0.00 0.01 0.00 73 1016.1
20260902154127 85 223 4.0 9.0 0.00 0.01 0.00 73 1016.1
20260902154040 85 219 4.0 9.0 0.00 0.01 0.00 73 1016.0
20260902153931 85 252 5.0 9.0 0.00 0.01 0.00 73 1016.1
20260902153844 85 271 5.0 9.0 0.00 0.01 0.00 73 1016.1
20260902153734 85 238 4.0 10.0 0.00 0.01 0.00 74 1016.2
20260902153625 85 275 3.0 10.0 0.00 0.01 0.00 74 1016.2
20260902153536 85 281 4.0 12.0 0.00 0.01 0.00 73 1016.3
20260902153452 85 286 6.0 12.0 0.00 0.01 0.00 73 1016.3
20260902153323 85 316 6.0 12.0 0.00 0.01 0.00 73 1016.3
20260902153235 85 292 5.0 12.0 0.00 0.01 0.00 73 1016.3
20260902153158 85 264 4.0 12.0 0.00 0.01 0.00 73 1016.3
20260902153030 85 252 4.0 12.0 0.00 0.01 0.00 73 1016.2
20260902152921 85 312 4.0 12.0 0.00 0.01 0.00 74 1016.1
20260902152833 85 280 5.0 12.0 0.00 0.01 0.00 74 1016.2
20260902152725 85 261 5.0 12.0 0.00 0.01 0.00 74 1016.1
20260902152622 85 271 4.0 11.0 0.00 0.01 0.00 74 1016.2
20260902152534 84 250 6.0 11.0 0.00 0.01 0.00 74 1016.2
20260902152427 84 276 8.0 11.0 0.00 0.01 0.00 73 1016.2
20260902152338 84 315 9.0 11.0 0.00 0.01 0.00 73 1016.2
20260902152229 84 287 6.0 11.0 0.00 0.01 0.00 73 1016.1
20260902152141 84 284 4.0 13.0 0.00 0.01 0.00 74 1016.0
20260902152032 84 270 6.0 13.0 0.00 0.01 0.00 74 1016.0
20260902151924 85 318 5.0 13.0 0.00 0.01 0.00 73 1016.0
20260902151836 84 321 5.0 13.0 0.00 0.01 0.00 74 1016.0
20260902151732 85 251 4.0 13.0 0.00 0.01 0.00 75 1016.1
20260902151654 85 265 5.0 13.0 0.00 0.01 0.00 75 1016.1
20260902151545 84 303 7.0 13.0 0.00 0.01 0.00 75 1016.1
20260902151437 84 315 9.0 13.0 0.00 0.01 0.00 74 1016.3
20260902151350 84 321 9.0 13.0 0.00 0.01 0.00 74 1016.3
20260902151240 85 313 6.0 12.0 0.00 0.01 0.00 77 1016.3
20260902151131 85 288 5.0 11.0 0.00 0.01 0.00 76 1016.3
20260902151044 85 313 5.0 12.0 0.00 0.01 0.00 76 1016.2
20260902150957 85 316 5.0 12.0 0.00 0.01 0.00 76 1016.2
20260902150827 85 292 6.0 12.0 0.00 0.01 0.00 76 1016.2
20260902150723 85 289 7.0 12.0 0.00 0.01 0.00 75 1016.2
20260902150635 85 296 6.0 12.0 0.00 0.01 0.00 76 1016.1
20260902150546 85 320 6.0 12.0 0.00 0.01 0.00 75 1016.1
20260902150437 85 279 7.0 12.0 0.00 0.01 0.00 75 1016.1
20260902150348 85 328 8.0 12.0 0.00 0.01 0.00 75 1016.2
20260902150257 85 286 6.0 12.0 0.00 0.01 0.00 75 1016.2
20260902150158 85 290 5.0 8.0 0.00 0.01 0.00 76 1016.2
20260902150029 85 329 4.0 8.0 0.00 0.01 0.00 75 1016.0
20260902145921 85 313 4.0 8.0 0.00 0.01 0.00 75 1015.9
20260902145833 86 308 5.0 8.0 0.00 0.01 0.00 75 1016.1
20260902145730 86 313 4.0 8.0 0.00 0.01 0.00 75 1016.2
20260902145641 86 291 5.0 8.0 0.00 0.01 0.00 75 1016.2
20260902145533 86 323 6.0 8.0 0.00 0.01 0.00 75 1016.1
20260902145445 86 310 6.0 8.0 0.00 0.01 0.00 75 1016.0
20260902145357 86 317 5.0 8.0 0.00 0.01 0.00 75 1015.8
20260902145229 86 277 4.0 8.0 0.00 0.01 0.00 74 1015.6
20260902145141 86 272 3.0 8.0 0.00 0.01 0.00 76 1015.6
20260902145033 86 242 2.0 8.0 0.00 0.01 0.00 76 1015.6
20260902144927 86 19 1.0 8.0 0.00 0.01 0.00 77 1015.5
20260902144838 86 122 2.0 8.0 0.00 0.01 0.00 77 1015.5
20260902144730 85 187 2.0 8.0 0.00 0.01 0.00 76 1015.5
20260902144652 85 277 2.0 8.0 0.00 0.01 0.00 78 1015.5
20260902144523 85 255 4.0 8.0 0.00 0.01 0.00 76 1015.5
20260902144435 85 231 3.0 8.0 0.00 0.01 0.00 76 1015.5
20260902144328 85 243 2.0 7.0 0.00 0.01 0.00 76 1015.5
20260902144240 85 262 3.0 7.0 0.00 0.01 0.00 76 1015.5
20260902144131 85 239 2.0 5.0 0.00 0.01 0.00 76 1015.6
20260902144026 85 287 1.0 5.0 0.00 0.01 0.00 77 1015.5
20260902143938 85 236 1.0 5.0 0.00 0.01 0.00 77 1015.5
20260902143830 84 236 2.0 5.0 0.00 0.01 0.00 77 1015.5
20260902143722 84 229 2.0 5.0 0.00 0.01 0.00 78 1015.5
20260902143634 84 236 2.0 6.0 0.00 0.01 0.00 77 1015.5
20260902143526 84 226 3.0 6.0 0.00 0.01 0.00 78 1015.6
20260902143439 84 239 2.0 6.0 0.00 0.01 0.00 78 1015.5
20260902143333 84 250 1.0 6.0 0.00 0.01 0.00 78 1015.5
20260902143246 84 246 2.0 6.0 0.00 0.01 0.00 78 1015.5
20260902143207 84 246 2.0 6.0 0.00 0.01 0.00 78 1015.6
20260902143038 84 175 2.0 6.0 0.00 0.01 0.00 77 1015.5
20260902142931 84 244 3.0 9.0 0.00 0.01 0.00 77 1015.6
20260902142822 84 238 4.0 9.0 0.00 0.01 0.00 77 1015.6
20260902142734 84 223 3.0 9.0 0.00 0.01 0.00 77 1015.6
20260902142626 84 287 2.0 9.0 0.00 0.01 0.00 77 1015.6
20260902142537 84 284 2.0 9.0 0.00 0.01 0.00 78 1015.7
20260902142429 84 207 2.0 9.0 0.00 0.01 0.00 78 1015.6
20260902142344 84 207 3.0 9.0 0.00 0.01 0.00 77 1015.6
20260902142255 83 235 4.0 9.0 0.00 0.01 0.00 78 1015.6
20260902142126 83 242 3.0 9.0 0.00 0.01 0.00 79 1015.6
20260902142037 83 283 3.0 7.0 0.00 0.01 0.00 79 1015.6
20260902141930 83 232 4.0 7.0 0.00 0.01 0.00 78 1015.6
20260902141842 83 238 3.0 8.0 0.00 0.01 0.00 79 1015.6
20260902141753 83 225 2.0 7.0 0.00 0.01 0.00 80 1015.6
20260902141716 83 261 3.0 7.0 0.00 0.01 0.00 79 1015.6
20260902141526 83 240 3.0 7.0 0.00 0.01 0.00 80 1015.7
20260902141422 83 254 2.0 7.0 0.00 0.01 0.00 79 1015.6
20260902141334 83 236 2.0 7.0 0.00 0.01 0.00 79 1015.6
20260902141224 83 236 3.0 7.0 0.00 0.01 0.00 79 1015.5
20260902141135 83 238 3.0 6.0 0.00 0.01 0.00 80 1015.6
20260902141026 82 209 3.0 5.0 0.00 0.01 0.00 80 1015.6
20260902140938 82 240 2.0 5.0 0.00 0.01 0.00 80 1015.6
20260902140850 82 240 3.0 6.0 0.00 0.01 0.00 80 1015.6
20260902140721 82 241 3.0 6.0 0.00 0.01 0.00 80 1015.6
20260902140632 82 305 3.0 6.0 0.00 0.01 0.00 81 1015.6
20260902140545 82 274 2.0 6.0 0.00 0.01 0.00 81 1015.6
20260902140457 82 236 2.0 6.0 0.00 0.01 0.00 81 1015.6
20260902140413 82 236 2.0 6.0 0.00 0.01 0.00 81 1015.7
20260902140217 82 275 3.0 6.0 0.00 0.01 0.00 81 1015.6
20260902140027 81 219 3.0 5.0 0.00 0.01 0.00 81 1015.7
20260902135939 81 227 3.0 5.0 0.00 0.01 0.00 81 1015.6
20260902135851 81 236 2.0 5.0 0.00 0.01 0.00 81 1015.7
20260902135743 81 244 3.0 5.0 0.00 0.01 0.00 81 1015.7
20260902135654 81 221 3.0 5.0 0.00 0.01 0.00 81 1015.7
20260902135544 81 242 3.0 5.0 0.00 0.01 0.00 81 1015.7
20260902135439 81 257 2.0 4.0 0.00 0.01 0.00 81 1015.7
20260902135331 81 240 2.0 4.0 0.00 0.01 0.00 81 1015.7
20260902135223 81 240 1.0 4.0 0.00 0.01 0.00 81 1015.7
20260902135135 81 240 1.0 4.0 0.00 0.01 0.00 81 1015.6
20260902135027 81 240 2.0 4.0 0.00 0.01 0.00 82 1015.7
20260902134939 81 240 2.0 4.0 0.00 0.01 0.00 82 1015.7
20260902134830 81 240 2.0 5.0 0.00 0.01 0.00 82 1015.7
20260902134743 81 240 2.0 5.0 0.00 0.01 0.00 82 1015.6
20260902134705 81 240 2.0 5.0 0.00 0.01 0.00 82 1015.6
20260902134535 81 240 2.0 5.0 0.00 0.01 0.00 82 1015.6
20260902134450 81 240 2.0 5.0 0.00 0.01 0.00 81 1015.6
20260902134402 81 240 2.0 5.0 0.00 0.01 0.00 82 1015.6
20260902134233 81 223 2.0 5.0 0.00 0.01 0.00 82 1015.7
20260902134124 81 233 2.0 5.0 0.00 0.01 0.00 82 1015.6
20260902134036 81 239 2.0 5.0 0.00 0.01 0.00 82 1015.7
20260902133929 81 243 1.0 5.0 0.00 0.01 0.00 82 1015.7
20260902133822 81 243 2.0 5.0 0.00 0.01 0.00 82 1015.7
20260902133734 81 243 2.0 5.0 0.00 0.01 0.00 82 1015.8
20260902133630 81 243 3.0 5.0 0.00 0.01 0.00 82 1015.6
20260902133522 81 213 3.0 6.0 0.00 0.01 0.00 81 1015.8
20260902133434 81 240 3.0 6.0 0.00 0.01 0.00 82 1015.7
20260902133347 81 248 3.0 5.0 0.00 0.01 0.00 82 1015.7
20260902133236 81 229 2.0 7.0 0.00 0.01 0.00 82 1015.7
20260902133158 81 275 2.0 7.0 0.00 0.01 0.00 82 1015.7
20260902133049 81 222 2.0 7.0 0.00 0.01 0.00 82 1015.7
20260902133000 80 251 1.0 7.0 0.00 0.01 0.00 82 1015.7
20260902132831 80 251 1.0 7.0 0.00 0.01 0.00 82 1015.7
20260902132744 80 251 2.0 7.0 0.00 0.01 0.00 82 1015.8
20260902132656 80 251 2.0 7.0 0.00 0.01 0.00 82 1015.7
20260902132532 80 244 3.0 7.0 0.00 0.01 0.00 82 1015.7
20260902132423 80 248 3.0 7.0 0.00 0.01 0.00 82 1015.8
20260902132334 80 234 2.0 7.0 0.00 0.01 0.00 82 1015.7
20260902132246 80 238 2.0 7.0 0.00 0.01 0.00 82 1015.8
20260902132136 80 242 3.0 7.0 0.00 0.01 0.00 82 1015.7
20260902132048 80 211 4.0 7.0 0.00 0.01 0.00 82 1015.8
20260902131939 80 213 3.0 7.0 0.00 0.01 0.00 82 1015.8
20260902131849 80 232 3.0 4.0 0.00 0.01 0.00 83 1015.8
20260902131801 80 251 2.0 7.0 0.00 0.01 0.00 83 1015.8
20260902131723 80 249 2.0 7.0 0.00 0.01 0.00 83 1015.8
20260902131553 80 244 2.0 7.0 0.00 0.01 0.00 83 1015.8
20260902131449 80 227 1.0 7.0 0.00 0.01 0.00 83 1015.8
20260902131401 80 254 1.0 7.0 0.00 0.01 0.00 83 1015.8
20260902131231 80 230 1.0 7.0 0.00 0.01 0.00 83 1015.7
20260902131123 80 221 2.0 7.0 0.00 0.01 0.00 83 1015.8
20260902131036 80 221 2.0 7.0 0.00 0.01 0.00 83 1015.8
20260902130928 80 221 2.0 7.0 0.00 0.01 0.00 82 1015.8
20260902130840 80 244 2.0 5.0 0.00 0.01 0.00 83 1015.8
20260902130733 80 227 1.0 3.0 0.00 0.01 0.00 82 1015.9
20260902130629 80 194 1.0 3.0 0.00 0.01 0.00 82 1015.9
20260902130541 80 238 0.0 3.0 0.00 0.01 0.00 83 1015.8
20260902130431 80 196 0.0 3.0 0.00 0.01 0.00 83 1015.8
20260902130325 80 189 1.0 3.0 0.00 0.01 0.00 83 1015.8
20260902130234 80 189 1.0 3.0 0.00 0.01 0.00 83 1015.8
20260902130157 80 254 1.0 3.0 0.00 0.01 0.00 83 1015.8
20260902130049 80 254 0.0 3.0 0.00 0.01 0.00 83 1015.9
20260902130001 80 215 0.0 0.0 0.00 0.01 0.00 84 1015.8
20260902125832 80 215 0.0 0.0 0.00 0.01 0.00 84 1015.8
20260902125744 80 215 0.0 0.0 0.00 0.01 0.00 83 1015.8
20260902125700 80 215 0.0 0.0 0.00 0.01 0.00 83 1015.8
20260902125531 80 217 0.0 0.0 0.00 0.01 0.00 84 1015.8
20260902125423 80 240 0.0 0.0 0.00 0.01 0.00 84 1015.8
20260902125335 80 200 0.0 0.0 0.00 0.01 0.00 84 1015.8
20260902125247 79 200 0.0 0.0 0.00 0.01 0.00 84 1015.8
20260902125140 79 200 0.0 0.0 0.00 0.01 0.00 85 1015.9
20260902125031 79 200 0.0 0.0 0.00 0.01 0.00 85 1015.9
20260902124923 79 200 0.0 0.0 0.00 0.01 0.00 84 1015.9
20260902124836 79 200 0.0 0.0 0.00 0.01 0.00 85 1015.8
20260902124732 79 200 0.0 0.0 0.00 0.01 0.00 85 1015.9
20260902124655 79 200 0.0 0.0 0.00 0.01 0.00 84 1015.9
20260902124545 79 200 0.0 0.0 0.00 0.01 0.00 84 1015.9
20260902124457 79 200 0.0 0.0 0.00 0.01 0.00 84 1015.9
20260902124327 79 200 0.0 0.0 0.00 0.01 0.00 84 1016.0
20260902124238 79 200 0.0 0.0 0.00 0.01 0.00 84 1015.8
20260902124130 79 200 0.0 0.0 0.00 0.01 0.00 84 1015.9
20260902124023 79 200 0.0 0.0 0.00 0.01 0.00 84 1015.8
20260902123935 79 200 0.0 0.0 0.00 0.01 0.00 84 1015.8
20260902123829 79 200 0.0 0.0 0.00 0.01 0.00 84 1015.8
20260902123722 79 200 0.0 0.0 0.00 0.01 0.00 85 1015.8
20260902123634 79 200 0.0 0.0 0.00 0.01 0.00 85 1015.8
20260902123546 79 200 0.0 0.0 0.00 0.01 0.00 85 1015.8
20260902123459 78 200 0.0 0.0 0.00 0.01 0.00 85 1015.8
20260902123329 78 200 0.0 1.0 0.00 0.01 0.00 85 1015.8
20260902123239 78 200 0.0 1.0 0.00 0.01 0.00 85 1015.9
20260902123201 78 200 0.0 1.0 0.00 0.01 0.00 85 1015.9
20260902123032 78 200 0.0 2.0 0.00 0.01 0.00 85 1015.9
20260902122928 78 200 0.0 2.0 0.00 0.01 0.00 85 1015.9
20260902122839 78 200 0.0 2.0 0.00 0.01 0.00 86 1015.9
20260902122732 78 247 0.0 3.0 0.00 0.01 0.00 86 1015.9
20260902122625 78 247 0.0 3.0 0.00 0.01 0.00 86 1015.9
20260902122536 78 247 0.0 3.0 0.00 0.01 0.00 86 1015.9
20260902122426 78 247 0.0 3.0 0.00 0.01 0.00 86 1015.9
20260902122338 78 247 0.0 3.0 0.00 0.01 0.00 86 1016.0
20260902122230 78 247 1.0 3.0 0.00 0.01 0.00 86 1016.0
20260902122122 78 247 1.0 3.0 0.00 0.01 0.00 86 1016.0
20260902122038 77 249 2.0 3.0 0.00 0.01 0.00 86 1016.1
20260902121931 77 249 1.0 3.0 0.00 0.01 0.00 86 1016.2
20260902121823 77 249 1.0 3.0 0.00 0.01 0.00 87 1016.1
20260902121734 77 249 1.0 3.0 0.00 0.01 0.00 87 1016.1
20260902121657 77 249 1.0 3.0 0.00 0.01 0.00 87 1016.1
20260902121528 77 249 1.0 3.0 0.00 0.01 0.00 87 1016.2
20260902121441 77 249 0.0 2.0 0.00 0.01 0.00 87 1016.1
20260902121352 77 249 0.0 2.0 0.00 0.01 0.00 87 1016.0
20260902121223 77 249 0.0 2.0 0.00 0.01 0.00 87 1016.0
20260902121140 77 249 0.0 3.0 0.00 0.01 0.00 87 1016.1
20260902121032 77 249 0.0 3.0 0.00 0.01 0.00 88 1016.0
20260902120924 77 249 0.0 3.0 0.00 0.01 0.00 88 1016.0
20260902120837 77 249 0.0 3.0 0.00 0.01 0.00 88 1016.0
20260902120728 77 249 1.0 3.0 0.00 0.01 0.00 88 1015.9
20260902120640 77 249 1.0 3.0 0.00 0.01 0.00 88 1016.1
20260902120533 76 249 0.0 3.0 0.00 0.01 0.00 88 1016.0
20260902120425 76 249 1.0 3.0 0.00 0.01 0.00 88 1015.9
20260902120337 76 249 2.0 3.0 0.00 0.01 0.00 88 1016.0
20260902120241 76 249 1.0 3.0 0.00 0.01 0.00 88 1015.9
20260902120143 76 249 1.0 3.0 0.00 0.01 0.00 88 1015.9
20260902120033 76 249 0.0 3.0 0.00 0.01 0.00 89 1015.9
20260902115924 76 249 1.0 3.0 0.00 0.01 0.00 89 1015.9
20260902115836 76 244 2.0 3.0 0.00 0.01 0.00 89 1015.9
20260902115729 76 244 1.0 3.0 0.00 0.01 0.00 89 1015.9
20260902115640 76 322 0.0 0.0 0.00 0.01 0.00 89 1015.8
20260902115531 76 322 0.0 0.0 0.00 0.01 0.00 89 1015.8
20260902115428 76 322 0.0 0.0 0.00 0.01 0.00 89 1015.9
20260902115341 75 322 0.0 0.0 0.00 0.01 0.00 89 1015.9
20260902115252 75 322 0.0 0.0 0.00 0.01 0.00 90 1015.9
20260902115144 75 322 0.0 0.0 0.00 0.01 0.00 90 1015.9
20260902115055 75 322 0.0 0.0 0.00 0.01 0.00 90 1015.8
20260902114926 75 322 0.0 0.0 0.00 0.01 0.00 90 1015.8
20260902114839 75 202 0.0 0.0 0.00 0.01 0.00 90 1015.8
20260902114731 75 202 0.0 0.0 0.00 0.01 0.00 90 1015.8
20260902114654 75 202 0.0 0.0 0.00 0.01 0.00 90 1015.8
20260902114526 75 202 0.0 0.0 0.00 0.01 0.00 90 1015.7
20260902114423 75 202 0.0 0.0 0.00 0.01 0.00 90 1015.7
20260902114336 75 202 0.0 0.0 0.00 0.01 0.00 90 1015.7
20260902114228 75 202 0.0 0.0 0.00 0.01 0.00 90 1015.7
20260902114140 75 202 0.0 0.0 0.00 0.01 0.00 90 1015.6
20260902114033 75 202 0.0 0.0 0.00 0.01 0.00 90 1015.6
20260902113925 75 202 0.0 0.0 0.00 0.01 0.00 90 1015.6
20260902113838 75 202 0.0 0.0 0.00 0.01 0.00 90 1015.7
20260902113730 75 202 0.0 0.0 0.00 0.01 0.00 90 1015.7
20260902113625 75 202 0.0 0.0 0.00 0.01 0.00 90 1015.6
20260902113538 75 202 0.0 0.0 0.00 0.01 0.00 90 1015.7
20260902113431 75 202 0.0 0.0 0.00 0.01 0.00 90 1015.7
20260902113343 75 303 0.0 0.0 0.00 0.01 0.00 90 1015.6
20260902113253 75 298 0.0 0.0 0.00 0.01 0.00 90 1015.6
20260902113154 75 240 0.0 0.0 0.00 0.01 0.00 90 1015.6
20260902113046 75 240 0.0 0.0 0.00 0.01 0.00 90 1015.6
20260902112957 75 240 0.0 0.0 0.00 0.01 0.00 90 1015.6
20260902112828 75 240 0.0 0.0 0.00 0.01 0.00 90 1015.6
20260902112724 75 240 0.0 0.0 0.00 0.01 0.00 90 1015.5
20260902112636 75 240 0.0 0.0 0.00 0.01 0.00 90 1015.6
20260902112527 75 240 0.0 0.0 0.00 0.01 0.00 90 1015.6
20260902112438 75 240 0.0 0.0 0.00 0.01 0.00 90 1015.6
20260902112329 75 240 0.0 0.0 0.00 0.01 0.00 90 1015.6
20260902112241 75 240 0.0 0.0 0.00 0.01 0.00 90 1015.8
20260902112134 75 240 0.0 0.0 0.00 0.01 0.00 90 1015.6
20260902112026 75 240 0.0 0.0 0.00 0.01 0.00 90 1015.6
20260902111938 75 240 0.0 0.0 0.00 0.01 0.00 90 1015.7
20260902111854 75 240 0.0 0.0 0.00 0.01 0.00 90 1015.8
20260902111725 75 240 0.0 0.0 0.00 0.01 0.00 91 1015.6
20260902111646 75 240 0.0 0.0 0.00 0.01 0.00 91 1015.6
20260902111537 75 240 0.0 0.0 0.00 0.01 0.00 91 1015.7
20260902111430 75 240 0.0 0.0 0.00 0.01 0.00 91 1015.7
20260902111323 75 240 0.0 0.0 0.00 0.01 0.00 91 1015.6
20260902111236 75 240 0.0 0.0 0.00 0.01 0.00 91 1015.7
20260902111127 75 240 0.0 0.0 0.00 0.01 0.00 91 1015.8
20260902111023 75 240 0.0 0.0 0.00 0.01 0.00 91 1015.7
20260902110935 75 240 0.0 0.0 0.00 0.01 0.00 91 1015.6
20260902110826 75 240 0.0 0.0 0.00 0.01 0.00 91 1015.7
20260902110738 75 240 0.0 0.0 0.00 0.01 0.00 91 1015.7
20260902110630 75 240 0.0 0.0 0.00 0.01 0.00 91 1015.7
20260902110523 75 240 0.0 0.0 0.00 0.01 0.00 91 1015.7
20260902110436 75 240 0.0 0.0 0.00 0.01 0.00 91 1015.6
20260902110329 75 240 0.0 0.0 0.00 0.01 0.00 91 1015.8
20260902110223 75 240 0.0 0.0 0.00 0.01 0.00 91 1015.7
20260902110144 75 240 0.0 0.0 0.00 0.01 0.00 91 1015.7
20260902110035 75 240 0.0 0.0 0.00 0.01 0.00 91 1015.7
20260902105947 75 240 0.0 0.0 0.00 0.01 0.00 91 1015.7
20260902105838 75 240 0.0 0.0 0.00 0.01 0.00 91 1015.7
20260902105729 75 240 0.0 0.0 0.00 0.01 0.00 91 1015.7
20260902105640 75 240 0.0 0.0 0.00 0.01 0.00 91 1015.7
20260902105531 75 240 0.0 0.0 0.00 0.01 0.00 92 1015.7
20260902105423 75 240 0.0 0.0 0.00 0.01 0.00 92 1015.6
20260902105335 74 240 0.0 0.0 0.00 0.01 0.00 92 1015.7
20260902105231 75 240 0.0 0.0 0.00 0.01 0.00 92 1015.6
20260902105142 74 240 0.0 0.0 0.00 0.01 0.00 92 1015.6
20260902105054 74 240 0.0 0.0 0.00 0.01 0.00 92 1015.6
20260902104946 74 240 0.0 0.0 0.00 0.01 0.00 92 1015.7
20260902104856 74 240 0.0 0.0 0.00 0.01 0.00 92 1015.8
20260902104727 74 240 0.0 0.0 0.00 0.01 0.00 92 1015.7
20260902104649 74 240 0.0 0.0 0.00 0.01 0.00 92 1015.7
20260902104540 74 240 0.0 0.0 0.00 0.01 0.00 92 1015.7
20260902104452 74 240 0.0 0.0 0.00 0.01 0.00 92 1015.6
20260902104323 74 240 0.0 0.0 0.00 0.01 0.00 92 1015.7
20260902104240 74 240 0.0 0.0 0.00 0.01 0.00 92 1015.7
20260902104151 74 240 0.0 0.0 0.00 0.01 0.00 92 1015.7
20260902104103 74 240 0.0 0.0 0.00 0.01 0.00 92 1015.6
20260902103953 74 240 0.0 0.0 0.00 0.01 0.00 92 1015.7
20260902103824 74 240 0.0 0.0 0.00 0.01 0.00 93 1015.8
20260902103736 74 240 0.0 0.0 0.00 0.01 0.00 93 1015.7
20260902103627 74 240 0.0 0.0 0.00 0.01 0.00 93 1015.7
20260902103540 74 240 0.0 0.0 0.00 0.01 0.00 93 1015.6
20260902103432 74 240 0.0 0.0 0.00 0.01 0.00 93 1015.7
20260902103327 74 240 0.0 0.0 0.00 0.01 0.00 93 1015.8
20260902103238 74 240 0.0 0.0 0.00 0.01 0.00 93 1015.7
20260902103202 74 240 0.0 0.0 0.00 0.01 0.00 93 1015.7
20260902103032 74 240 0.0 0.0 0.00 0.01 0.00 93 1015.6
20260902102925 74 240 0.0 0.0 0.00 0.01 0.00 93 1015.6
20260902102837 74 240 0.0 0.0 0.00 0.01 0.00 93 1015.7
20260902102750 74 240 0.0 0.0 0.00 0.01 0.00 93 1015.7
20260902102640 74 240 0.0 0.0 0.00 0.01 0.00 93 1015.7
20260902102532 74 240 0.0 0.0 0.00 0.01 0.00 94 1015.7
20260902102423 74 240 0.0 0.0 0.00 0.01 0.00 93 1015.7
20260902102339 74 240 0.0 0.0 0.00 0.01 0.00 94 1015.7
20260902102231 74 240 0.0 0.0 0.00 0.01 0.00 94 1015.7
20260902102143 74 240 0.0 0.0 0.00 0.01 0.00 94 1015.6
20260902102054 74 240 0.0 0.0 0.00 0.01 0.00 94 1015.7
20260902101946 74 240 0.0 0.0 0.00 0.01 0.00 94 1015.6
20260902101858 74 240 0.0 0.0 0.00 0.01 0.00 94 1015.6
20260902101809 74 240 0.0 0.0 0.00 0.01 0.00 94 1015.7
20260902101731 74 240 0.0 0.0 0.00 0.01 0.00 94 1015.6
20260902101601 74 240 0.0 0.0 0.00 0.01 0.00 95 1015.6
20260902101433 74 240 0.0 0.0 0.00 0.01 0.00 95 1015.6
20260902101328 74 240 0.0 0.0 0.00 0.01 0.00 95 1015.6
20260902101240 74 240 0.0 0.0 0.00 0.01 0.00 95 1015.6
20260902101132 73 240 0.0 0.0 0.00 0.01 0.00 95 1015.6
20260902101023 73 240 0.0 0.0 0.00 0.01 0.00 95 1015.6
20260902100935 73 240 0.0 0.0 0.00 0.01 0.00 95 1015.5
20260902100826 73 240 0.0 0.0 0.00 0.01 0.00 95 1015.6
20260902100737 73 240 0.0 0.0 0.00 0.01 0.00 95 1015.6
20260902100628 73 240 0.0 0.0 0.00 0.01 0.00 95 1015.6
20260902100524 73 240 0.0 0.0 0.00 0.01 0.00 96 1015.6
20260902100436 73 240 0.0 0.0 0.00 0.01 0.00 96 1015.5
20260902100330 73 240 0.0 0.0 0.00 0.01 0.00 96 1015.5
20260902100240 73 240 0.0 0.0 0.00 0.01 0.00 96 1015.5
20260902100202 73 240 0.0 0.0 0.00 0.01 0.00 96 1015.5
20260902100033 73 240 0.0 0.0 0.00 0.01 0.00 96 1015.5
20260902095926 73 240 0.0 0.0 0.00 0.01 0.00 96 1015.6
20260902095838 73 240 0.0 0.0 0.00 0.01 0.00 96 1015.5
20260902095751 73 240 0.0 0.0 0.00 0.01 0.00 96 1015.6
20260902095625 73 240 0.0 0.0 0.00 0.01 0.00 96 1015.5
20260902095538 73 240 0.0 0.0 0.00 0.01 0.00 96 1015.6
20260902095430 73 240 0.0 0.0 0.00 0.01 0.00 96 1015.5
20260902095341 73 240 0.0 0.0 0.00 0.01 0.00 96 1015.4
20260902095234 72 240 0.0 0.0 0.00 0.01 0.00 96 1015.5
20260902095125 72 240 0.0 0.0 0.00 0.01 0.00 96 1015.5
20260902095038 72 240 0.0 0.0 0.00 0.01 0.00 97 1015.5
20260902094930 72 240 0.0 0.0 0.00 0.01 0.00 96 1015.5
20260902094825 72 240 0.0 0.0 0.00 0.01 0.00 96 1015.5
20260902094737 72 240 0.0 0.0 0.00 0.01 0.00 97 1015.5
20260902094659 72 240 0.0 0.0 0.00 0.01 0.00 97 1015.5
20260902094531 72 240 0.0 0.0 0.00 0.01 0.00 97 1015.5
20260902094443 72 240 0.0 0.0 0.00 0.01 0.00 97 1015.5
20260902094355 72 240 0.0 0.0 0.00 0.01 0.00 96 1015.4
20260902094247 72 240 0.0 0.0 0.00 0.01 0.00 96 1015.4
20260902094159 72 240 0.0 0.0 0.00 0.01 0.00 96 1015.5
20260902094031 71 240 0.0 0.0 0.00 0.01 0.00 96 1015.6
20260902093923 71 240 0.0 0.0 0.00 0.01 0.00 96 1015.5
20260902093839 71 240 0.0 0.0 0.00 0.01 0.00 96 1015.5
20260902093730 71 240 0.0 0.0 0.00 0.01 0.00 96 1015.5
20260902093623 71 240 0.0 0.0 0.00 0.01 0.00 96 1015.5
20260902093535 71 240 0.0 0.0 0.00 0.01 0.00 96 1015.5
20260902093427 71 240 0.0 0.0 0.00 0.01 0.00 96 1015.5
20260902093340 71 240 0.0 0.0 0.00 0.01 0.00 96 1015.6
20260902093231 71 240 0.0 0.0 0.00 0.01 0.00 96 1015.5
20260902093152 71 240 0.0 0.0 0.00 0.01 0.00 96 1015.5
20260902093027 71 240 0.0 0.0 0.00 0.01 0.00 96 1015.5
20260902092940 71 240 0.0 0.0 0.00 0.01 0.00 96 1015.4
20260902092833 71 240 0.0 0.0 0.00 0.01 0.00 96 1015.4
20260902092725 72 240 0.0 0.0 0.00 0.01 0.00 96 1015.4
20260902092638 71 240 0.0 0.0 0.00 0.01 0.00 96 1015.4
20260902092550 71 240 0.0 0.0 0.00 0.01 0.00 96 1015.3
20260902092440 71 240 0.0 0.0 0.00 0.01 0.00 96 1015.4
20260902092352 71 240 0.0 0.0 0.00 0.01 0.00 96 1015.4
20260902092223 71 240 0.0 0.0 0.00 0.01 0.00 95 1015.4
20260902092136 71 240 0.0 0.0 0.00 0.01 0.00 96 1015.3
20260902092031 71 240 0.0 0.0 0.00 0.01 0.00 95 1015.4
20260902091923 71 240 0.0 0.0 0.00 0.01 0.00 95 1015.4
20260902091836 72 240 0.0 0.0 0.00 0.01 0.00 95 1015.4
20260902091749 72 240 0.0 0.0 0.00 0.01 0.00 95 1015.4
20260902091712 72 240 0.0 0.0 0.00 0.01 0.00 95 1015.3
20260902091543 72 240 0.0 0.0 0.00 0.01 0.00 95 1015.4
20260902091455 72 240 0.0 0.0 0.00 0.01 0.00 95 1015.4
20260902091408 72 240 0.0 0.0 0.00 0.01 0.00 95 1015.3
20260902091259 72 240 0.0 0.0 0.00 0.01 0.00 95 1015.4
20260902091129 72 240 0.0 0.0 0.00 0.01 0.00 95 1015.4
20260902091025 72 240 0.0 0.0 0.00 0.01 0.00 95 1015.4
20260902090938 72 240 0.0 0.0 0.00 0.01 0.00 95 1015.4
20260902090851 72 240 0.0 0.0 0.00 0.01 0.00 95 1015.4
20260902090741 72 240 0.0 0.0 0.00 0.01 0.00 95 1015.3
20260902090634 72 240 0.0 0.0 0.00 0.01 0.00 95 1015.3
20260902090526 72 240 0.0 0.0 0.00 0.01 0.00 95 1015.3
20260902090436 72 240 0.0 0.0 0.00 0.01 0.00 95 1015.3
20260902090329 72 240 0.0 0.0 0.00 0.01 0.00 95 1015.3
20260902090225 72 240 0.0 0.0 0.00 0.01 0.00 95 1015.3
20260902090146 72 240 0.0 0.0 0.00 0.01 0.00 95 1015.4
20260902090036 72 240 0.0 0.0 0.00 0.01 0.00 95 1015.3
20260902085929 72 240 0.0 0.0 0.00 0.01 0.00 95 1015.3
20260902085840 72 240 0.0 0.0 0.00 0.01 0.00 95 1015.3
20260902085751 72 240 0.0 0.0 0.00 0.01 0.00 95 1015.3
20260902085643 72 240 0.0 0.0 0.00 0.01 0.00 95 1015.3
20260902085555 72 240 0.0 0.0 0.00 0.01 0.00 95 1015.3
20260902085425 72 240 0.0 0.0 0.00 0.01 0.00 95 1015.2
20260902085337 72 240 0.0 0.0 0.00 0.01 0.00 95 1015.2
20260902085229 72 240 0.0 0.0 0.00 0.01 0.00 95 1015.1
20260902085144 72 240 0.0 0.0 0.00 0.01 0.00 95 1015.2
20260902085034 72 240 0.0 0.0 0.00 0.01 0.00 95 1015.2
20260902084944 72 240 0.0 0.0 0.00 0.01 0.00 95 1015.2
20260902084835 72 240 0.0 0.0 0.00 0.01 0.00 95 1015.2
20260902084747 72 240 0.0 0.0 0.00 0.01 0.00 95 1015.2
20260902084710 72 240 0.0 0.0 0.00 0.01 0.00 95 1015.2
20260902084601 72 240 0.0 0.0 0.00 0.01 0.00 95 1015.2
20260902084432 72 240 0.0 0.0 0.00 0.01 0.00 95 1015.2
20260902084323 72 240 0.0 0.0 0.00 0.01 0.00 95 1015.1
20260902084235 72 240 0.0 0.0 0.00 0.01 0.00 95 1015.2
20260902084130 72 240 0.0 0.0 0.00 0.01 0.00 95 1015.1
20260902084021 72 240 0.0 0.0 0.00 0.01 0.00 95 1015.2
20260902083932 72 240 0.0 0.0 0.00 0.01 0.00 95 1015.2
20260902083823 72 240 0.0 0.0 0.00 0.01 0.00 95 1015.3
20260902083734 72 240 0.0 0.0 0.00 0.01 0.00 95 1015.2
20260902083627 72 240 0.0 0.0 0.00 0.01 0.00 95 1015.3
20260902083540 73 240 0.0 0.0 0.00 0.01 0.00 95 1015.2
20260902083432 73 240 0.0 0.0 0.00 0.01 0.00 95 1015.2
20260902083328 73 240 0.0 0.0 0.00 0.01 0.00 95 1015.2
20260902083239 73 240 0.0 0.0 0.00 0.01 0.00 95 1015.2
20260902083202 73 240 0.0 0.0 0.00 0.01 0.00 95 1015.2
20260902083054 73 240 0.0 0.0 0.00 0.01 0.00 95 1015.3
20260902082925 73 240 0.0 0.0 0.00 0.01 0.00 95 1015.3
20260902082837 73 240 0.0 0.0 0.00 0.01 0.00 95 1015.2
20260902082729 73 240 0.0 0.0 0.00 0.01 0.00 95 1015.2
20260902082640 73 240 0.0 0.0 0.00 0.01 0.00 95 1015.3
20260902082532 73 240 0.0 0.0 0.00 0.01 0.00 95 1015.2
20260902082427 73 240 0.0 0.0 0.00 0.01 0.00 95 1015.3
20260902082339 73 240 0.0 0.0 0.00 0.01 0.00 95 1015.3
20260902082231 73 240 0.0 0.0 0.00 0.01 0.00 95 1015.2
20260902082123 73 240 0.0 0.0 0.00 0.01 0.00 95 1015.3
20260902082037 73 240 0.0 0.0 0.00 0.01 0.00 95 1015.3
20260902081948 73 240 0.0 0.0 0.00 0.01 0.00 95 1015.2
20260902081859 73 240 0.0 0.0 0.00 0.01 0.00 95 1015.2
20260902081730 73 240 0.0 0.0 0.00 0.01 0.00 95 1015.2
20260902081651 73 240 0.0 0.0 0.00 0.01 0.00 95 1015.2
20260902081527 73 240 0.0 0.0 0.00 0.01 0.00 95 1015.2
20260902081439 73 240 0.0 0.0 0.00 0.01 0.00 95 1015.2
20260902081331 73 240 0.0 0.0 0.00 0.01 0.00 95 1015.2
20260902081223 73 240 0.0 0.0 0.00 0.01 0.00 95 1015.3
20260902081136 73 240 0.0 0.0 0.00 0.01 0.00 95 1015.2
20260902081027 73 240 0.0 0.0 0.00 0.01 0.00 95 1015.2
20260902080939 73 240 0.0 0.0 0.00 0.01 0.00 94 1015.2
20260902080831 73 240 0.0 0.0 0.00 0.01 0.00 94 1015.2
20260902080743 73 240 0.0 0.0 0.00 0.01 0.00 94 1015.2
20260902080637 73 240 0.0 0.0 0.00 0.01 0.00 94 1015.2
20260902080549 73 240 0.0 0.0 0.00 0.01 0.00 94 1015.2
20260902080500 73 240 0.0 0.0 0.00 0.01 0.00 94 1015.3
20260902080333 73 240 0.0 0.0 0.00 0.01 0.00 94 1015.3
20260902080222 73 240 0.0 0.0 0.00 0.01 0.00 94 1015.3
20260902080034 73 240 0.0 0.0 0.00 0.01 0.00 94 1015.4
20260902075927 73 240 0.0 0.0 0.00 0.01 0.00 94 1015.3
20260902075839 73 240 0.0 0.0 0.00 0.01 0.00 94 1015.3
20260902075736 74 240 0.0 0.0 0.00 0.01 0.00 94 1015.3
20260902075628 74 240 0.0 0.0 0.00 0.01 0.00 94 1015.3
20260902075540 74 240 0.0 0.0 0.00 0.01 0.00 94 1015.3
20260902075452 74 240 0.0 0.0 0.00 0.01 0.00 94 1015.2
20260902075324 74 240 0.0 0.0 0.00 0.01 0.00 94 1015.3
20260902075235 74 240 0.0 0.0 0.00 0.01 0.00 94 1015.3
20260902075126 74 240 0.0 0.0 0.00 0.01 0.00 94 1015.2
20260902075038 74 240 0.0 0.0 0.00 0.01 0.00 94 1015.3
20260902074930 74 240 0.0 0.0 0.00 0.01 0.00 94 1015.3
20260902074846 74 240 0.0 0.0 0.00 0.01 0.00 94 1015.4
20260902074737 74 240 0.0 0.0 0.00 0.01 0.00 94 1015.3
20260902074658 74 240 0.0 0.0 0.00 0.01 0.00 94 1015.3
20260902074530 74 240 0.0 0.0 0.00 0.01 0.00 94 1015.2
20260902074443 74 240 0.0 0.0 0.00 0.01 0.00 94 1015.3
20260902074354 74 240 0.0 0.0 0.00 0.01 0.00 94 1015.3
20260902074305 74 240 0.0 0.0 0.00 0.01 0.00 94 1015.3
20260902074156 74 240 0.0 0.0 0.00 0.01 0.00 94 1015.2
20260902074026 74 240 0.0 0.0 0.00 0.01 0.00 94 1015.2
20260902073938 74 240 0.0 0.0 0.00 0.01 0.00 94 1015.2
20260902073835 74 240 0.0 0.0 0.00 0.01 0.00 94 1015.3
20260902073728 74 240 0.0 0.0 0.00 0.01 0.00 94 1015.3
20260902073639 74 240 0.0 0.0 0.00 0.01 0.00 94 1015.3
20260902073531 74 240 0.0 0.0 0.00 0.01 0.00 94 1015.3
20260902073423 74 240 0.0 0.0 0.00 0.01 0.00 94 1015.3
20260902073334 74 240 0.0 0.0 0.00 0.01 0.00 94 1015.3
20260902073224 74 240 0.0 0.0 0.00 0.01 0.00 94 1015.5
20260902073146 74 240 0.0 0.0 0.00 0.01 0.00 94 1015.4
20260902073021 75 240 0.0 0.0 0.00 0.01 0.00 94 1015.4
20260902072933 74 240 0.0 0.0 0.00 0.01 0.00 94 1015.3
20260902072825 75 240 0.0 0.0 0.00 0.01 0.00 94 1015.4
20260902072738 75 240 0.0 0.0 0.00 0.01 0.00 93 1015.4
20260902072650 75 240 0.0 0.0 0.00 0.01 0.00 93 1015.4
20260902072602 75 240 0.0 0.0 0.00 0.01 0.00 93 1015.4
20260902072514 75 240 0.0 0.0 0.00 0.01 0.00 93 1015.3
20260902072405 75 240 0.0 0.0 0.00 0.01 0.00 93 1015.4
20260902072317 75 240 0.0 0.0 0.00 0.01 0.00 93 1015.4
20260902072208 75 240 0.0 0.0 0.00 0.01 0.00 93 1015.3
20260902072059 75 240 0.0 0.0 0.00 0.01 0.00 93 1015.3
20260902071933 75 240 0.0 0.0 0.00 0.01 0.00 93 1015.4
20260902071825 75 240 0.0 0.0 0.00 0.01 0.00 93 1015.3
20260902071737 75 240 0.0 0.0 0.00 0.01 0.00 93 1015.2
20260902071659 75 240 0.0 0.0 0.00 0.01 0.00 93 1015.2
20260902071531 75 240 0.0 0.0 0.00 0.01 0.00 93 1015.3
20260902071424 75 240 0.0 0.0 0.00 0.01 0.00 93 1015.3
20260902071336 75 240 0.0 0.0 0.00 0.01 0.00 93 1015.3
20260902071248 75 240 0.0 0.0 0.00 0.01 0.00 93 1015.3
20260902071139 75 240 0.0 0.0 0.00 0.01 0.00 93 1015.3
20260902071035 75 240 0.0 0.0 0.00 0.01 0.00 93 1015.4
20260902070948 75 240 0.0 0.0 0.00 0.01 0.00 93 1015.4
20260902070839 75 240 0.0 0.0 0.00 0.01 0.00 93 1015.4
20260902070731 75 240 0.0 0.0 0.00 0.01 0.00 92 1015.4
20260902070622 75 240 0.0 0.0 0.00 0.01 0.00 92 1015.5
20260902070535 75 240 0.0 0.0 0.00 0.01 0.00 92 1015.4
20260902070426 75 240 0.0 0.0 0.00 0.01 0.00 92 1015.4
20260902070337 75 240 0.0 0.0 0.00 0.01 0.00 92 1015.4
20260902070226 75 240 0.0 0.0 0.00 0.01 0.00 92 1015.4
20260902070152 75 240 0.0 0.0 0.00 0.01 0.00 92 1015.4
20260902070023 75 240 0.0 0.0 0.00 0.01 0.00 92 1015.3
20260902065935 75 240 0.0 0.0 0.00 0.01 0.00 92 1015.3
20260902065827 76 240 0.0 0.0 0.00 0.01 0.00 92 1015.3
20260902065738 76 240 0.0 0.0 0.00 0.01 0.00 92 1015.3
20260902065630 76 240 0.0 0.0 0.00 0.01 0.00 92 1015.4
20260902065523 76 240 0.0 0.0 0.00 0.01 0.00 92 1015.3
20260902065435 76 240 0.0 0.0 0.00 0.01 0.00 92 1015.3
20260902065330 76 240 0.0 0.0 0.00 0.01 0.00 92 1015.3
20260902065222 76 240 0.0 0.0 0.00 0.01 0.00 92 1015.3
20260902065134 76 240 0.0 0.0 0.00 0.01 0.00 92 1015.3
20260902065026 76 240 0.0 0.0 0.00 0.01 0.00 92 1015.3
20260902064938 76 240 0.0 0.0 0.00 0.01 0.00 92 1015.2
20260902064830 76 240 0.0 0.0 0.00 0.01 0.00 92 1015.3
20260902064722 76 240 0.0 0.0 0.00 0.01 0.00 92 1015.3
20260902064643 76 240 0.0 0.0 0.00 0.01 0.00 91 1015.1
20260902064536 76 240 0.0 0.0 0.00 0.01 0.00 91 1015.2
20260902064431 76 240 0.0 0.0 0.00 0.01 0.00 91 1015.1
20260902064343 76 240 0.0 0.0 0.00 0.01 0.00 91 1015.2
20260902064256 76 240 0.0 0.0 0.00 0.01 0.00 91 1015.1
20260902064126 76 240 0.0 0.0 0.00 0.01 0.00 91 1015.2
20260902064039 76 240 0.0 0.0 0.00 0.01 0.00 91 1015.2
20260902063930 76 240 0.0 0.0 0.00 0.01 0.00 90 1015.2
20260902063821 76 240 0.0 0.0 0.00 0.01 0.00 90 1015.2
20260902063732 76 240 0.0 0.0 0.00 0.01 0.00 90 1015.3
20260902063644 76 240 0.0 0.0 0.00 0.01 0.00 90 1015.2
20260902063556 77 240 0.0 0.0 0.00 0.01 0.00 90 1015.2
20260902063431 77 240 0.0 0.0 0.00 0.01 0.00 90 1015.1
20260902063342 77 240 0.0 0.0 0.00 0.01 0.00 90 1015.1
20260902063254 77 240 0.0 0.0 0.00 0.01 0.00 90 1015.1
20260902063214 77 240 0.0 0.0 0.00 0.01 0.00 90 1015.2
20260902063045 77 240 0.0 0.0 0.00 0.01 0.00 90 1015.1
20260902062936 77 240 0.0 0.0 0.00 0.01 0.00 89 1015.2
20260902062828 77 240 0.0 0.0 0.00 0.01 0.00 89 1015.1
20260902062740 77 240 0.0 0.0 0.00 0.01 0.00 89 1015.2
20260902062632 77 240 0.0 0.0 0.00 0.01 0.00 89 1015.1
20260902062545 77 240 0.0 0.0 0.00 0.01 0.00 89 1015.2
20260902062440 77 240 0.0 0.0 0.00 0.01 0.00 89 1015.2
20260902062331 78 240 0.0 0.0 0.00 0.01 0.00 89 1015.2
20260902062154 78 240 0.0 0.0 0.00 0.01 0.00 89 1015.2
20260902062107 78 240 0.0 0.0 0.00 0.01 0.00 89 1015.1
20260902062018 78 240 0.0 0.0 0.00 0.01 0.00 89 1015.2
20260902061909 78 240 0.0 0.0 0.00 0.01 0.00 89 1015.1
20260902061821 78 240 0.0 0.0 0.00 0.01 0.00 89 1015.1
20260902061700 78 240 0.0 0.0 0.00 0.01 0.00 89 1015.1
20260902061531 78 240 0.0 0.0 0.00 0.01 0.00 89 1015.1
20260902061425 78 240 0.0 0.0 0.00 0.01 0.00 89 1015.1
20260902061338 78 240 0.0 0.0 0.00 0.01 0.00 89 1015.1
20260902061250 78 240 0.0 0.0 0.00 0.01 0.00 89 1015.1
20260902061202 78 240 0.0 0.0 0.00 0.01 0.00 89 1015.1
20260902061053 78 240 0.0 0.0 0.00 0.01 0.00 89 1015.1
20260902061005 78 240 0.0 0.0 0.00 0.01 0.00 89 1015.2
20260902060855 78 240 0.0 0.0 0.00 0.01 0.00 89 1015.1
20260902060725 78 240 0.0 0.0 0.00 0.01 0.00 89 1015.2
20260902060638 79 240 0.0 1.0 0.00 0.01 0.00 89 1015.1
20260902060551 79 240 0.0 2.0 0.00 0.01 0.00 89 1015.1
20260902060422 79 240 0.0 2.0 0.00 0.01 0.00 89 1015.2
20260902060338 79 240 0.0 2.0 0.00 0.01 0.00 89 1015.2
20260902060230 79 240 0.0 2.0 0.00 0.01 0.00 89 1015.2
20260902060152 79 240 0.0 2.0 0.00 0.01 0.00 89 1015.2
20260902060044 79 240 0.0 2.0 0.00 0.01 0.00 89 1015.2
20260902055933 79 240 0.0 2.0 0.00 0.01 0.00 89 1015.1
20260902055826 79 240 1.0 2.0 0.00 0.01 0.00 88 1015.2
20260902055738 79 240 1.0 2.0 0.00 0.01 0.00 88 1015.2
20260902055631 79 240 1.0 2.0 0.00 0.01 0.00 89 1015.1
20260902055544 79 240 1.0 2.0 0.00 0.01 0.00 89 1015.1
20260902055457 79 240 2.0 3.0 0.00 0.01 0.00 89 1015.1
20260902055330 79 240 2.0 3.0 0.00 0.01 0.00 89 1015.1
20260902055223 79 240 1.0 3.0 0.00 0.01 0.00 89 1015.1
20260902055135 79 240 2.0 3.0 0.00 0.01 0.00 89 1015.1
20260902055027 79 240 1.0 3.0 0.00 0.01 0.00 89 1015.1
20260902054939 79 240 2.0 3.0 0.00 0.01 0.00 89 1015.1
20260902054831 79 240 2.0 3.0 0.00 0.01 0.00 89 1015.1
20260902054723 79 240 2.0 3.0 0.00 0.01 0.00 89 1015.1
20260902054646 79 240 1.0 3.0 0.00 0.01 0.00 89 1015.1
20260902054522 79 240 1.0 3.0 0.00 0.01 0.00 89 1015.2
20260902054435 79 240 1.0 3.0 0.00 0.01 0.00 89 1015.1
20260902054327 79 240 2.0 3.0 0.00 0.01 0.00 89 1015.0
20260902054238 79 240 1.0 3.0 0.00 0.01 0.00 89 1015.1
20260902054131 79 240 1.0 3.0 0.00 0.01 0.00 89 1015.0
20260902054023 79 240 2.0 3.0 0.00 0.01 0.00 89 1015.1
20260902053935 79 240 1.0 3.0 0.00 0.01 0.00 89 1015.0
20260902053828 79 240 2.0 3.0 0.00 0.01 0.00 89 1015.1
20260902053744 79 240 2.0 3.0 0.00 0.01 0.00 89 1015.1
20260902053656 79 240 2.0 3.0 0.00 0.01 0.00 89 1015.1
20260902053607 79 240 2.0 3.0 0.00 0.01 0.00 89 1015.1
20260902053437 79 240 2.0 3.0 0.00 0.01 0.00 89 1015.1
20260902053329 79 240 2.0 3.0 0.00 0.01 0.00 89 1015.0
20260902053239 79 240 2.0 3.0 0.00 0.01 0.00 89 1015.0
20260902053203 79 240 2.0 3.0 0.00 0.01 0.00 89 1015.0
20260902053053 79 240 2.0 3.0 0.00 0.01 0.00 89 1015.1
20260902052926 79 240 2.0 3.0 0.00 0.01 0.00 89 1015.0
20260902052838 80 240 2.0 3.0 0.00 0.01 0.00 89 1015.1
20260902052733 80 240 2.0 3.0 0.00 0.01 0.00 89 1015.1
20260902052626 80 240 2.0 3.0 0.00 0.01 0.00 89 1015.1
20260902052538 80 240 2.0 3.0 0.00 0.01 0.00 89 1015.1
20260902052429 80 240 2.0 3.0 0.00 0.01 0.00 89 1015.1
20260902052340 80 240 2.0 3.0 0.00 0.01 0.00 89 1015.1
20260902052231 80 240 2.0 3.0 0.00 0.01 0.00 89 1015.1
20260902052143 80 240 2.0 3.0 0.00 0.01 0.00 89 1015.1
20260902052054 80 240 2.0 3.0 0.00 0.01 0.00 89 1015.1
20260902051924 80 240 2.0 3.0 0.00 0.01 0.00 89 1015.1
20260902051836 80 240 2.0 3.0 0.00 0.01 0.00 89 1015.1
20260902051733 80 240 2.0 4.0 0.00 0.01 0.00 89 1015.1
20260902051655 80 240 2.0 4.0 0.00 0.01 0.00 89 1015.1
20260902051527 80 240 2.0 4.0 0.00 0.01 0.00 89 1015.1
20260902051438 80 240 2.0 4.0 0.00 0.01 0.00 89 1015.1
20260902051330 80 240 2.0 4.0 0.00 0.01 0.00 89 1015.1
20260902051223 80 240 2.0 4.0 0.00 0.01 0.00 89 1015.1
20260902051133 80 240 2.0 4.0 0.00 0.01 0.00 89 1015.1
20260902051025 80 240 2.0 4.0 0.00 0.01 0.00 89 1015.1
20260902050941 80 240 2.0 4.0 0.00 0.01 0.00 89 1015.2
20260902050853 80 240 1.0 3.0 0.00 0.01 0.00 89 1015.2
20260902050745 80 240 1.0 3.0 0.00 0.01 0.00 89 1015.2
20260902050657 80 240 1.0 3.0 0.00 0.01 0.00 89 1015.1
20260902050528 80 240 1.0 4.0 0.00 0.01 0.00 89 1015.1
20260902050439 80 240 1.0 4.0 0.00 0.01 0.00 89 1015.2
20260902050333 80 240 1.0 4.0 0.00 0.01 0.00 89 1015.2
20260902050222 80 240 1.0 4.0 0.00 0.01 0.00 89 1015.2
20260902050144 80 240 1.0 4.0 0.00 0.01 0.00 89 1015.2
20260902050036 80 240 1.0 4.0 0.00 0.01 0.00 89 1015.2
20260902045932 80 240 2.0 4.0 0.00 0.01 0.00 89 1015.2
20260902045823 80 240 2.0 4.0 0.00 0.01 0.00 89 1015.2
20260902045735 80 240 2.0 4.0 0.00 0.01 0.00 89 1015.2
20260902045627 80 240 1.0 3.0 0.00 0.01 0.00 89 1015.2
20260902045539 80 240 2.0 3.0 0.00 0.01 0.00 89 1015.2
20260902045431 80 240 2.0 3.0 0.00 0.01 0.00 89 1015.3
20260902045322 80 240 2.0 3.0 0.00 0.01 0.00 89 1015.2
20260902045235 80 240 1.0 3.0 0.00 0.01 0.00 89 1015.3
20260902045130 80 240 1.0 3.0 0.00 0.01 0.00 89 1015.3
20260902045022 80 240 2.0 3.0 0.00 0.01 0.00 89 1015.2
20260902044934 80 240 2.0 3.0 0.00 0.01 0.00 89 1015.2
20260902044826 80 240 1.0 3.0 0.00 0.01 0.00 89 1015.2
20260902044737 80 240 1.0 3.0 0.00 0.01 0.00 89 1015.2
20260902044700 80 240 1.0 3.0 0.00 0.01 0.00 89 1015.2
20260902044551 80 240 1.0 3.0 0.00 0.01 0.00 88 1015.3
20260902044422 81 240 1.0 3.0 0.00 0.01 0.00 89 1015.2
20260902044334 81 240 1.0 3.0 0.00 0.01 0.00 89 1015.3
20260902044250 81 240 1.0 3.0 0.00 0.01 0.00 88 1015.3
20260902044202 81 240 1.0 3.0 0.00 0.01 0.00 89 1015.3
20260902044032 81 240 1.0 4.0 0.00 0.01 0.00 88 1015.3
20260902043944 81 240 1.0 4.0 0.00 0.01 0.00 88 1015.4
20260902043857 81 240 1.0 4.0 0.00 0.01 0.00 88 1015.3
20260902043727 81 240 2.0 4.0 0.00 0.01 0.00 88 1015.3
20260902043639 81 240 2.0 4.0 0.00 0.01 0.00 88 1015.3
20260902043531 81 240 2.0 4.0 0.00 0.01 0.00 88 1015.3
20260902043423 81 240 2.0 4.0 0.00 0.01 0.00 88 1015.3
20260902043339 81 240 2.0 4.0 0.00 0.01 0.00 88 1015.3
20260902043229 81 240 2.0 4.0 0.00 0.01 0.00 88 1015.3
20260902043150 81 240 2.0 4.0 0.00 0.01 0.00 88 1015.3
20260902043040 81 240 2.0 4.0 0.00 0.01 0.00 88 1015.3